GFSSGP_850_rhum_000.txt.gz
RH
41 15 23 28 49 44 45 36 23 25 20 15 16 16 17 22 24 48 59 47 65 71 59 64 81 86 84 80 84 77 57 74 90 76 91 88 82 78 86 95 81 91 95 95 59 88 98 97 92
38 13 24 30 45 50 40 26 26 23 18 17 16 15 15 23 30 37 53 33 66 79 76 53 80 78 79 82 70 66 52 76 72 88 90 95 93 92 72 93 83 68 96 82 36 79 98 97 97
25 23 27 37 43 44 37 31 24 19 16 15 15 15 16 23 26 44 53 28 65 76 80 84 64 81 82 82 81 55 60 82 90 97 91 97 95 94 84 85 74 62 64 45 31 76 97 86 98
26 22 21 38 36 31 29 44 23 19 16 15 14 19 24 26 29 40 31 33 67 74 76 80 80 77 82 87 85 58 60 84 95 96 98 87 93 96 84 71 71 53 45 37 24 35 36 93 48
27 20 32 29 30 24 21 42 18 19 17 16 14 18 32 28 26 26 21 50 68 70 72 80 78 82 92 86 83 56 70 86 95 99 86 87 91 98 96 75 76 63 54 45 25 20 22 28 29
27 17 30 32 24 19 17 18 19 19 17 15 15 15 36 32 22 33 34 49 66 68 73 76 74 85 87 85 71 57 67 90 95 88 68 79 94 96 92 87 96 90 70 59 34 19 18 21 27
33 33 30 22 19 20 18 18 20 19 18 16 15 17 36 31 39 22 32 60 66 68 74 74 66 67 66 68 40 52 82 91 90 70 60 58 66 86 92 90 90 90 85 63 38 26 18 19 24
30 30 27 24 22 23 18 19 19 18 18 15 15 20 31 36 25 21 33 58 61 66 69 74 73 50 24 18 23 50 92 98 86 80 52 40 59 80 82 76 87 87 84 66 46 25 22 19 21
32 37 32 28 24 22 19 20 18 18 17 16 16 20 29 28 19 26 32 56 59 59 61 64 74 74 64 49 32 17 34 49 40 30 23 35 40 60 79 60 51 60 63 54 42 21 18 20 23
35 44 29 19 19 26 24 23 20 19 18 17 17 22 31 23 19 21 24 36 48 48 54 58 65 70 72 71 60 41 20 20 19 20 20 32 41 89 93 66 53 45 40 35 30 18 16 21 25
32 41 29 20 20 24 24 23 22 19 25 18 17 18 23 22 23 28 30 41 28 42 46 42 55 66 58 46 47 40 21 28 22 33 51 49 54 82 70 53 39 45 28 29 28 19 15 22 28
38 28 23 20 21 24 24 22 22 20 19 19 18 20 22 24 25 28 32 40 39 24 18 40 49 53 55 44 32 36 37 40 36 47 57 55 58 61 44 34 36 38 31 42 31 31 17 22 25
32 25 22 21 19 25 22 22 24 21 19 18 18 18 22 27 32 36 36 37 38 36 32 27 25 53 44 54 29 28 35 38 39 48 47 50 56 50 50 49 55 52 41 40 56 50 38 45 29
24 25 23 22 21 22 22 22 21 19 20 19 18 18 21 26 32 36 36 37 37 36 37 33 26 25 54 52 42 30 33 34 39 36 38 40 40 42 48 50 46 45 46 42 43 44 37 31 37
24 29 29 24 22 22 21 26 24 18 19 20 18 18 19 20 22 26 29 34 31 36 34 34 35 30 26 47 44 45 39 43 40 41 43 42 44 45 46 50 50 46 43 39 39 39 54 58 51
29 31 39 25 22 20 22 32 19 16 18 18 18 18 18 19 20 21 22 24 30 35 37 39 38 37 28 23 35 46 53 54 40 35 37 42 44 48 52 53 51 53 51 50 49 45 46 49 50
32 36 32 26 21 22 25 30 20 17 17 17 17 16 16 16 16 18 18 19 23 28 34 39 43 40 38 28 28 35 43 44 37 32 29 26 30 36 38 43 47 55 61 60 55 56 58 60 63
34 32 26 26 26 24 27 27 20 15 15 16 15 15 14 15 16 16 16 18 21 21 24 30 36 43 44 40 39 45 47 29 31 28 24 25 28 30 36 37 44 58 62 66 66 65 68 68 70
28 26 24 18 24 23 26 24 18 14 15 16 14 17 18 18 19 20 19 18 18 21 24 27 31 35 41 46 48 47 41 40 38 29 24 27 27 31 34 40 48 62 69 70 73 75 75 75 80
27 27 26 22 22 26 26 25 16 15 15 15 19 22 24 24 26 28 28 21 20 19 19 24 28 33 36 41 43 49 48 42 42 38 32 32 36 39 50 51 52 63 74 78 82 88 86 83 87
30 31 31 31 25 28 27 30 22 17 18 19 22 25 27 28 32 32 28 22 21 20 22 21 26 32 38 42 46 48 56 64 64 55 64 70 73 73 78 79 85 84 89 85 88 92 94 90 90
34 27 29 31 34 40 27 39 25 23 26 26 26 28 28 30 30 31 30 26 22 22 22 24 25 28 37 44 50 55 59 63 60 65 67 66 66 59 57 63 75 88 96 98 97 99 98 98 92
37 29 28 29 34 34 29 37 27 26 31 30 28 28 29 30 30 29 30 29 28 25 25 26 29 30 32 40 44 51 58 61 61 69 73 71 69 68 66 65 75 78 92 100 100 100 100 100 98
27 28 30 30 35 45 26 28 31 28 30 33 29 29 31 32 31 29 29 28 28 29 28 29 29 29 28 29 35 42 45 50 55 57 66 68 67 69 71 74 74 76 85 95 99 100 100 100 98
29 36 48 53 52 45 23 32 30 21 26 29 32 31 31 33 33 34 34 32 31 31 31 32 31 31 32 32 32 32 36 47 60 69 77 79 79 78 77 78 80 80 82 86 97 100 100 99 100
31 33 51 57 52 39 25 39 28 20 19 22 27 31 33 35 34 39 43 43 40 38 38 38 38 36 35 35 36 36 35 34 33 35 39 52 65 73 78 80 84 88 90 92 93 99 100 100 100
32 43 28 40 32 44 35 25 22 20 23 22 26 31 34 35 35 41 46 45 41 40 42 45 44 45 43 41 40 39 39 39 39 40 41 40 39 38 39 56 68 75 79 86 92 95 97 99 99
23 23 37 40 45 44 36 28 32 26 25 25 30 31 34 36 38 43 46 47 46 47 48 49 50 51 50 46 45 51 53 52 51 51 51 49 47 47 45 44 43 44 53 64 74 82 88 91 92
32 32 28 30 32 43 42 36 24 26 23 24 32 33 35 37 41 46 49 50 50 50 51 51 50 50 50 50 48 47 50 58 60 60 61 60 57 56 58 60 60 58 52 47 47 51 65 81 89
31 31 30 42 39 38 41 43 25 28 33 31 32 35 36 38 45 49 50 49 49 52 52 51 52 52 53 49 44 45 50 53 52 50 46 40 38 35 34 37 44 50 56 65 64 58 54 60 65

GFSSGP_850_rhum_003.txt.gz
RH
36 18 21 26 48 57 54 47 30 40 24 17 16 17 22 23 25 29 46 48 56 57 55 45 66 83 88 84 79 76 73 50 90 93 92 97 84 82 93 94 91 94 97 97 51 99 97 98 97
33 15 25 28 51 60 56 36 38 32 20 16 15 16 18 24 27 28 41 49 46 44 55 42 75 81 86 84 84 59 60 60 67 93 96 97 94 94 86 97 83 82 98 65 39 87 99 93 96
24 21 25 44 55 55 51 39 37 28 17 15 16 16 20 23 28 29 31 31 44 62 67 66 64 81 78 84 73 63 49 76 91 97 81 93 96 98 89 76 63 50 52 37 37 52 99 91 96
28 23 22 43 45 39 34 36 34 27 17 15 14 23 24 26 25 30 32 19 41 73 68 65 71 68 79 80 68 71 60 75 93 98 96 87 96 96 91 63 56 44 35 24 21 34 26 56 70
27 25 37 33 32 30 25 29 23 28 19 16 14 22 30 24 22 21 18 20 44 61 72 74 79 79 77 81 78 75 59 80 79 96 92 94 95 96 98 74 57 48 34 23 16 18 24 22 28
30 27 35 38 31 24 21 21 21 27 19 15 15 26 35 32 16 15 14 23 52 53 65 71 76 78 79 86 70 70 54 95 98 96 70 78 82 62 80 71 61 57 50 41 32 20 18 21 23
35 44 37 32 29 25 18 18 31 24 21 18 15 31 38 34 24 15 15 35 56 55 65 66 59 64 77 85 73 55 54 92 84 93 48 41 46 50 39 66 64 83 75 69 48 32 20 16 20
32 37 32 30 29 28 20 20 20 19 18 15 16 30 38 26 29 18 22 38 54 52 50 51 48 36 55 36 27 19 34 63 53 45 27 28 26 27 43 55 84 86 82 79 62 39 24 19 18
34 47 40 31 29 26 24 28 22 19 18 16 17 21 21 22 28 20 27 39 40 43 36 39 44 44 44 19 14 12 16 22 23 24 23 23 24 23 32 54 48 49 60 62 54 41 23 20 19
39 55 40 26 28 27 27 24 23 23 20 20 22 21 25 26 20 19 19 23 25 26 28 36 40 46 43 29 34 32 18 18 21 21 23 21 20 23 45 42 42 35 33 37 46 38 22 15 18
38 50 39 33 29 24 25 23 22 25 24 20 20 17 23 25 20 22 19 20 18 16 22 32 38 45 48 43 29 28 28 17 20 18 21 28 33 33 29 32 31 34 40 32 29 28 20 13 16
47 36 33 31 25 24 27 23 23 22 22 21 19 19 20 21 20 18 18 15 19 21 18 24 32 42 50 53 31 22 26 21 26 28 30 31 38 33 30 32 32 31 36 27 24 24 20 12 14
45 38 32 29 23 23 24 26 24 22 19 20 20 18 19 23 23 22 20 22 26 26 28 20 24 28 40 39 32 26 22 23 26 31 35 35 37 38 39 40 39 33 29 27 24 20 20 18 14
31 30 29 25 26 24 27 25 24 20 19 20 20 19 18 20 21 23 27 28 29 30 31 34 29 25 38 41 31 30 32 27 32 35 34 35 36 37 39 41 41 40 38 35 32 27 24 24 22
32 37 34 30 27 28 21 26 26 17 17 20 19 20 19 18 19 19 18 20 22 26 31 33 30 33 32 24 30 31 34 35 31 31 37 38 38 40 42 44 44 41 45 45 42 38 34 34 35
34 34 45 36 28 26 22 36 26 18 20 19 18 18 18 19 19 21 23 23 22 27 32 35 36 33 32 30 22 30 41 38 29 27 28 29 34 39 42 42 36 40 50 52 51 49 46 44 43
41 50 43 36 26 27 26 32 25 18 19 19 17 17 18 17 18 19 21 23 24 26 26 30 36 34 35 33 32 32 28 30 27 30 25 23 25 28 34 36 38 47 55 58 58 57 57 55 57
52 44 38 35 25 27 29 32 28 20 17 19 19 18 20 20 23 20 18 17 20 24 28 35 38 38 40 42 41 40 44 36 29 30 25 25 27 34 42 46 49 61 70 68 73 72 69 69 68
37 36 35 25 25 26 30 32 28 19 17 22 23 24 26 26 25 19 17 17 18 18 24 27 36 46 44 43 46 45 43 42 42 40 38 43 53 57 62 66 63 60 68 68 70 76 81 78 80
35 35 34 26 26 27 29 31 20 17 20 26 28 28 29 28 27 24 20 18 17 18 19 21 26 33 40 50 46 46 44 47 51 54 60 64 65 66 69 70 67 66 74 79 79 81 82 84 90
33 33 36 36 32 29 31 37 21 23 25 28 28 29 31 33 33 30 24 21 19 18 19 22 22 28 34 40 51 53 55 58 53 51 56 63 72 76 78 77 78 83 89 90 92 95 96 97 96
35 30 30 33 39 47 33 47 28 30 31 35 31 30 31 32 33 31 28 26 24 24 24 24 25 28 34 41 47 55 62 62 64 66 69 73 78 81 80 77 76 79 84 91 94 100 100 100 98
38 31 30 30 36 38 34 41 36 35 38 39 38 32 31 30 32 33 33 32 31 28 28 28 27 25 26 30 38 43 48 54 57 63 69 72 75 77 75 75 76 79 82 84 89 94 92 96 100
31 31 32 36 42 54 41 39 37 39 40 39 37 33 32 31 32 37 37 36 34 34 32 31 31 31 33 34 34 34 36 39 41 46 56 66 74 78 81 84 81 85 86 85 86 88 95 94 97
30 43 58 57 60 59 30 36 36 28 35 34 41 36 34 33 33 34 34 36 37 36 36 35 34 33 36 37 39 40 41 41 42 43 43 42 41 41 47 67 79 74 74 84 91 93 93 90 92
35 42 64 64 63 50 29 40 31 25 31 30 32 35 35 35 36 36 39 42 43 44 45 43 42 41 41 40 39 41 42 43 47 52 55 55 53 50 47 44 42 44 53 63 70 78 84 86 89
35 45 37 45 43 52 47 34 23 32 38 39 38 37 36 36 36 39 43 45 46 48 48 49 49 49 47 45 44 45 45 43 45 51 55 57 56 54 49 46 46 44 44 43 44 51 60 67 78
26 27 41 49 48 48 47 33 39 32 34 36 45 40 38 38 39 42 44 46 48 51 51 50 50 50 49 44 39 39 41 42 49 55 53 51 45 39 36 33 30 28 30 38 44 47 46 47 47
40 36 30 39 47 52 53 43 30 27 29 35 41 39 38 39 41 43 47 50 51 53 53 51 50 49 38 31 34 41 44 45 50 54 55 52 46 40 37 35 34 33 32 31 36 47 57 60 60
35 36 36 48 45 49 49 45 28 39 36 36 39 37 39 40 43 47 50 51 53 56 55 55 54 49 32 41 47 53 53 49 51 50 48 47 44 40 38 40 43 45 43 42 42 48 48 72 78

GFSSGP_850_rhum_006.txt.gz
RH
36 20 17 26 45 59 56 50 36 38 28 18 17 18 20 23 21 20 33 35 37 49 55 52 53 76 94 89 92 84 81 65 45 98 94 91 86 80 82 84 96 97 97 96 73 99 97 98 90
31 17 25 32 53 64 56 40 40 38 29 17 18 20 19 23 26 23 27 31 36 43 47 53 56 78 86 88 86 84 70 55 51 79 88 90 94 95 88 95 74 95 100 54 38 95 96 85 99
26 22 25 48 60 58 54 40 39 29 19 17 17 18 21 22 22 24 24 20 23 36 51 47 63 80 79 81 82 71 51 47 80 95 90 89 96 97 86 70 68 55 42 29 37 50 68 62 94
26 23 24 45 45 40 38 35 28 32 22 16 16 23 24 24 23 24 25 16 21 36 50 57 55 67 68 78 81 65 52 51 88 90 90 94 92 95 84 64 50 40 32 29 24 37 34 28 34
28 24 38 36 33 31 26 20 20 30 25 19 15 24 28 23 22 22 17 14 21 32 47 55 64 72 72 75 77 67 63 59 71 97 98 91 94 95 73 65 60 44 44 31 19 18 23 19 19
30 28 37 37 32 26 22 16 17 27 26 20 17 26 27 28 20 18 13 19 31 35 42 56 65 71 73 73 74 64 56 45 56 92 93 88 91 82 65 60 55 59 61 45 30 22 18 18 20
37 46 42 33 34 26 20 24 28 28 25 18 17 34 33 28 17 20 14 31 38 40 49 54 63 67 68 68 68 61 47 34 74 98 52 50 69 56 45 54 77 92 73 62 53 39 26 17 17
33 41 36 33 31 27 23 25 24 20 21 16 17 30 30 22 20 20 20 34 37 41 46 52 55 48 42 52 52 30 15 18 57 50 27 25 28 29 36 57 59 51 81 68 67 53 36 24 18
35 50 47 33 29 27 24 30 24 22 21 18 17 20 21 22 25 19 22 32 34 36 43 45 40 42 36 36 21 13 8 14 24 26 28 23 25 26 26 32 43 39 32 36 42 45 35 23 18
40 58 49 34 28 35 30 28 25 25 25 22 20 18 20 22 23 18 17 22 24 26 30 31 35 38 42 34 24 19 14 15 19 22 22 25 26 24 21 34 33 23 20 20 25 25 26 23 15
42 52 42 36 32 33 30 27 25 25 28 22 22 21 27 27 28 20 18 18 20 27 30 26 29 37 42 35 27 25 26 23 18 19 19 22 25 26 25 29 27 25 24 24 25 21 23 24 17
49 40 37 35 34 35 29 24 27 24 22 21 21 21 22 25 26 18 18 18 22 27 31 34 32 34 35 36 32 24 24 26 20 24 24 26 28 29 30 31 33 33 32 30 29 24 24 24 19
49 45 39 36 34 32 27 28 30 25 21 20 21 21 20 22 22 22 21 24 28 27 29 31 35 31 33 31 29 30 28 27 27 29 29 30 33 33 34 34 37 38 39 37 36 32 28 25 23
42 38 34 30 28 28 30 28 27 23 21 19 19 21 20 20 19 22 24 20 22 24 24 30 36 34 32 29 29 35 33 28 27 29 31 33 34 34 35 36 38 39 41 42 42 42 40 36 33
33 44 40 33 29 30 26 31 27 20 20 19 17 22 21 19 24 22 28 28 29 29 31 32 36 39 37 30 26 25 32 33 31 28 30 33 35 35 38 38 38 42 51 55 55 54 56 54 49
34 37 45 35 33 29 28 44 30 20 21 21 18 22 21 22 23 26 27 27 28 28 29 32 34 37 39 36 33 30 28 34 27 29 34 36 38 45 51 52 52 53 56 60 62 61 60 61 60
46 51 47 41 31 29 30 36 28 21 22 19 21 21 20 22 22 22 22 21 22 22 24 25 33 36 37 39 40 39 37 35 30 31 36 44 54 59 60 59 57 57 58 63 68 69 73 70 68
54 51 44 41 27 36 34 34 30 23 19 19 21 26 25 23 22 20 18 17 17 20 22 25 31 43 45 44 44 44 45 43 41 39 38 38 46 59 69 71 71 72 73 71 72 74 76 78 81
42 40 41 36 30 32 36 33 31 26 24 26 28 30 31 29 26 22 21 21 23 21 23 28 31 38 47 49 48 47 46 46 45 45 49 57 64 73 79 80 81 82 85 84 86 88 89 88 90
41 43 44 36 29 26 28 30 31 21 28 30 31 32 30 29 25 23 22 23 22 23 24 23 25 28 31 38 49 52 51 51 53 59 65 68 70 74 80 82 83 84 85 84 87 91 95 97 97
46 46 42 40 35 32 32 40 24 27 31 34 33 32 33 33 31 28 25 24 23 21 22 22 24 28 32 36 42 51 58 60 63 72 76 75 79 82 83 87 87 86 85 84 83 86 90 93 90
48 37 35 34 39 44 35 53 31 34 36 37 36 32 34 35 36 35 32 28 28 29 29 28 28 32 36 41 46 53 63 67 66 64 63 67 71 73 76 80 80 80 81 83 85 86 86 89 85
39 34 32 32 39 40 38 45 41 37 40 43 43 34 34 37 37 36 35 34 33 31 30 31 31 31 33 34 38 42 44 45 45 46 51 59 68 78 81 81 84 82 82 79 81 88 93 92 85
36 33 44 47 48 57 45 45 42 44 37 42 43 35 34 38 38 36 38 37 35 36 35 35 34 36 37 38 39 40 42 44 42 43 44 45 44 43 43 46 54 62 65 66 73 78 83 87 96
36 46 61 59 62 61 39 43 38 32 38 34 44 38 35 35 33 35 36 36 38 38 38 41 43 43 44 44 44 44 44 46 49 52 55 55 53 52 51 49 46 45 47 49 53 56 60 67 77
40 45 64 64 70 55 33 42 32 30 32 32 35 35 36 35 33 32 35 39 42 43 44 46 46 46 45 43 41 41 41 43 50 55 58 57 53 49 43 38 34 31 29 29 34 44 50 54 59
37 48 40 50 49 55 49 40 26 45 51 46 44 39 37 35 35 37 38 43 47 49 50 50 49 49 47 40 31 32 36 38 42 46 50 50 50 48 44 39 36 33 31 29 28 28 28 35 45
35 34 46 55 54 53 50 41 41 42 53 53 53 42 38 37 39 40 44 49 52 52 53 52 51 50 46 28 28 37 39 38 42 44 45 47 48 47 44 41 38 37 37 38 38 38 37 41 40
39 39 35 45 53 54 55 47 36 36 45 49 49 40 38 38 41 45 49 53 54 55 55 55 55 52 39 25 31 37 40 45 50 50 51 52 52 48 43 40 40 44 47 48 51 56 56 59 71
38 40 38 48 45 54 52 46 30 37 34 37 40 37 39 40 44 50 53 54 57 58 57 54 51 45 32 34 40 40 37 38 46 50 51 52 46 39 34 33 36 40 44 54 66 61 71 79 68

GFSSGP_850_rhum_009.txt.gz
RH
36 26 17 24 44 59 56 48 41 41 35 21 19 20 20 23 19 20 25 26 28 30 40 46 52 68 86 91 88 88 85 77 64 88 93 87 85 94 87 95 96 97 95 99 99 97 96 96 89
34 24 22 34 55 62 54 43 40 40 33 24 19 21 19 20 25 21 21 24 29 31 37 44 48 74 90 89 92 86 84 66 63 71 86 81 88 93 98 96 80 98 98 97 55 99 98 93 96
34 24 24 53 64 62 54 41 42 31 25 19 18 19 20 21 20 20 22 21 24 26 39 42 49 72 85 82 84 80 71 48 55 81 85 84 88 95 98 85 70 65 71 48 48 78 74 75 81
32 24 26 43 45 42 42 36 27 28 26 21 17 22 22 20 19 18 19 18 21 28 43 50 62 73 81 80 77 77 58 43 56 88 78 89 91 98 99 83 63 51 45 34 29 39 38 35 63
31 24 36 38 35 31 30 23 22 29 29 23 17 20 24 20 19 16 17 14 20 31 44 51 58 61 70 69 75 72 54 46 52 96 90 93 91 96 96 68 71 59 51 42 27 19 24 34 22
32 29 37 37 33 28 26 20 30 26 29 24 17 26 23 21 17 14 13 16 25 34 41 50 58 66 72 72 70 67 52 46 44 68 88 98 98 96 92 78 74 66 56 48 38 29 22 19 18
37 46 41 36 36 28 22 23 30 33 28 24 17 28 26 23 18 15 13 19 29 35 40 47 55 64 73 71 72 70 67 49 37 62 72 75 92 83 74 64 64 64 47 41 42 37 31 24 18
35 45 41 39 33 28 22 28 24 26 24 19 19 27 24 22 19 17 15 22 33 40 36 42 49 55 57 46 53 56 49 35 20 52 30 23 43 56 41 34 38 35 30 33 46 42 38 37 28
37 51 54 40 31 28 28 35 26 24 24 23 19 22 22 23 20 18 16 23 31 35 32 39 38 47 47 39 41 43 25 16 13 22 18 23 27 26 24 22 28 31 26 28 35 40 41 42 38
42 60 52 38 26 34 35 35 30 27 26 24 21 22 21 21 19 18 17 18 23 27 26 35 37 40 44 42 35 26 19 14 15 19 20 22 24 26 25 22 27 27 25 25 26 30 36 36 33
46 54 44 38 32 36 38 35 28 27 30 24 23 22 22 24 24 23 19 18 22 27 29 32 34 36 43 43 40 30 27 21 18 18 19 21 22 23 26 26 29 31 33 32 33 32 32 27 28
50 43 40 37 35 40 39 34 30 27 24 21 21 21 22 24 25 23 22 19 22 22 28 32 33 35 36 42 42 39 29 25 24 21 22 24 24 28 30 31 33 36 40 42 44 43 44 41 35
53 48 42 39 39 35 31 34 32 28 23 21 22 20 20 22 22 22 24 23 26 27 28 32 35 32 32 34 42 40 36 28 24 27 26 30 31 33 39 41 44 46 48 50 53 53 52 50 46
47 46 43 38 37 33 34 33 31 26 22 22 22 20 20 22 24 27 31 30 31 32 31 36 34 34 38 37 36 38 42 34 29 26 27 34 36 38 41 44 47 47 53 56 59 62 63 61 60
42 42 40 37 35 36 30 36 34 24 24 21 20 18 19 23 27 30 32 29 34 30 30 33 37 40 42 42 41 38 35 35 31 29 32 33 34 37 41 43 46 49 54 58 60 61 64 64 65
36 40 47 36 33 32 31 46 35 23 24 23 22 21 21 22 23 25 25 25 23 23 24 27 36 40 41 42 42 43 40 39 35 34 34 36 42 46 48 51 52 56 60 62 62 64 66 68 69
45 54 50 42 32 31 33 40 33 25 24 22 23 22 23 24 25 24 22 21 20 20 21 22 26 32 41 45 46 46 46 47 45 43 41 41 49 58 65 67 70 74 79 82 83 83 83 82 80
58 51 50 48 34 36 35 40 32 27 23 22 24 26 26 26 24 23 22 22 20 20 22 22 24 30 36 43 46 48 49 50 50 48 49 54 59 66 74 80 84 88 90 90 91 95 96 96 95
50 44 43 42 34 34 41 39 33 29 25 28 30 31 32 30 32 30 29 26 25 22 23 24 27 28 32 37 44 47 48 50 52 54 57 62 67 74 84 90 92 89 92 92 95 96 97 96 97
44 46 51 40 35 36 35 39 35 27 28 30 33 35 36 34 31 29 30 26 24 25 27 27 27 29 32 35 43 52 56 58 62 66 71 74 82 88 91 90 90 92 94 92 90 92 97 98 90
50 50 50 43 40 34 38 44 37 28 32 35 36 37 38 37 33 32 29 29 29 27 28 28 29 32 34 40 50 58 65 72 78 78 72 70 71 76 79 81 83 85 86 85 86 89 92 85 83
74 45 43 44 44 51 38 59 42 34 40 42 41 40 41 40 37 35 34 32 32 34 33 31 30 29 33 36 41 48 54 54 52 50 52 59 67 71 71 71 71 73 76 77 80 80 87 96 98
55 37 41 42 42 43 42 51 46 37 44 46 46 41 42 38 36 36 35 34 35 35 35 36 34 34 37 37 38 38 40 44 46 46 46 47 49 49 49 49 50 50 52 56 60 62 67 92 100
36 37 45 51 52 62 50 48 46 46 36 44 45 42 41 38 38 37 37 37 36 38 38 37 37 38 40 40 40 40 41 42 42 42 42 44 46 46 45 44 42 40 37 35 35 40 48 56 60
39 47 65 64 67 67 45 52 37 31 35 37 46 41 40 39 35 37 39 38 39 40 41 42 44 43 43 40 38 37 38 38 37 37 36 34 33 33 38 41 41 39 37 34 32 30 29 29 33
47 47 65 64 72 58 46 49 35 35 36 30 35 36 39 38 36 39 39 40 42 44 46 47 47 47 46 38 29 29 30 32 37 39 39 41 43 44 44 44 43 41 38 36 36 36 35 35 36
41 51 44 53 55 64 54 45 33 48 52 49 44 40 39 36 39 40 42 45 46 48 48 49 50 49 47 39 28 30 34 33 34 39 45 46 47 47 46 45 42 37 34 35 37 39 40 46 52
37 39 50 60 62 60 54 49 46 42 52 57 57 46 39 40 44 44 47 48 49 51 52 53 53 53 49 33 29 34 39 41 42 42 42 43 44 42 39 34 28 26 26 28 34 40 44 51 68
38 39 44 50 58 57 60 50 37 33 51 56 53 41 38 42 43 46 48 50 52 55 56 56 56 52 43 33 36 40 41 41 43 43 42 38 32 24 15 8 5 5 6 11 23 33 46 85 86
39 40 40 53 48 57 58 50 36 44 45 50 47 42 42 41 43 47 52 54 56 57 59 58 53 49 40 40 44 45 46 44 41 34 26 15 5 2 2 3 3 3 4 6 13 19 47 65 42

GFSSGP_850_rhum_012.txt.gz
RH
33 31 19 24 44 60 55 48 43 41 38 25 21 21 22 23 18 23 19 23 28 31 39 46 63 75 74 78 94 87 86 78 69 60 82 93 92 87 82 96 94 95 98 97 97 87 97 98 92
33 30 20 35 56 59 52 45 42 35 31 26 21 20 21 20 22 18 20 20 25 28 36 40 56 64 80 91 89 90 86 78 59 54 84 88 87 93 98 84 86 95 98 99 53 99 97 100 94
35 27 22 57 67 59 51 42 44 31 21 27 19 19 20 20 19 18 18 17 18 21 34 42 48 76 87 88 84 82 78 63 50 55 80 88 82 87 94 85 70 66 72 39 48 92 96 73 79
36 24 27 40 44 44 45 37 26 27 23 27 18 21 22 19 18 18 15 15 15 21 35 44 47 76 90 82 80 77 72 52 44 68 83 84 87 93 94 95 71 61 51 43 37 44 43 43 48
35 25 34 37 36 32 32 24 22 31 29 28 19 19 22 21 19 17 15 14 18 24 34 46 57 73 69 76 73 76 69 53 46 94 88 87 93 92 97 75 72 54 44 43 39 34 30 31 37
34 29 38 34 31 29 27 22 29 32 30 28 21 22 20 20 20 17 15 15 21 27 36 44 55 72 73 73 73 70 64 52 41 71 93 96 86 92 98 74 51 49 55 52 58 51 43 31 26
39 45 44 36 38 33 24 27 28 31 31 25 20 24 20 21 22 17 16 16 23 29 36 45 51 63 88 84 79 72 64 59 46 38 49 56 71 64 56 68 56 49 59 96 100 94 68 56 41
35 46 45 43 37 30 22 30 29 28 29 24 20 25 22 24 25 18 17 18 22 30 35 45 51 56 64 63 64 65 62 59 48 32 54 32 37 40 35 35 34 40 57 97 82 82 68 56 54
38 53 58 44 36 29 27 38 31 30 28 24 23 23 23 21 26 21 18 17 20 27 31 39 45 54 58 52 46 56 58 53 44 27 30 32 32 31 27 25 23 29 40 43 51 94 59 53 47
45 62 54 41 30 30 34 39 36 32 28 24 22 23 22 21 23 24 20 18 19 23 29 35 39 50 52 43 41 40 38 35 30 25 28 28 28 28 26 27 31 38 42 45 46 51 51 51 44
48 57 47 40 34 33 42 41 35 31 34 25 22 21 21 20 23 26 22 21 20 26 31 34 35 44 45 41 45 40 35 33 29 23 21 24 24 25 28 33 40 40 46 51 56 56 54 51 48
50 44 42 39 37 39 44 40 37 32 28 22 23 23 22 20 21 24 25 30 28 28 31 33 35 40 40 41 41 44 42 35 28 29 27 24 26 27 29 35 40 42 46 49 54 56 58 58 56
57 50 45 42 41 44 40 40 38 31 27 22 23 24 23 21 22 26 32 34 35 32 31 31 33 38 41 41 41 41 39 39 32 31 29 30 29 32 35 37 42 46 52 54 57 58 58 58 58
51 49 47 45 42 41 39 38 34 30 25 24 23 22 21 20 23 26 32 32 33 34 34 38 36 38 40 41 44 44 44 42 40 37 32 31 31 34 37 41 46 49 52 54 57 56 58 58 60
48 49 44 38 35 40 34 40 40 28 27 25 23 22 21 19 23 25 27 28 28 30 29 30 32 37 39 40 42 45 46 47 44 39 40 39 41 45 49 51 54 58 66 72 72 71 74 74 75
45 41 52 41 34 32 34 36 33 22 27 24 23 25 24 22 24 25 25 25 24 23 23 22 25 31 36 39 40 44 48 50 49 48 48 52 57 61 63 66 66 73 81 87 89 91 91 91 92
47 61 53 47 34 36 38 46 30 28 26 24 23 27 30 27 26 24 22 21 20 19 19 18 19 22 29 39 43 45 47 48 49 51 55 60 68 71 76 79 79 85 90 93 96 97 98 97 97
72 55 50 53 36 37 40 44 33 29 26 25 25 30 34 30 29 28 26 24 22 21 23 26 24 26 30 37 43 46 49 51 54 58 64 70 75 82 88 90 92 98 100 98 97 94 92 92 95
57 50 56 43 36 36 42 44 36 31 29 27 28 36 39 33 37 35 30 28 26 26 27 22 21 21 25 29 39 51 60 64 70 74 75 77 76 78 84 88 91 90 88 87 90 91 90 91 91
47 50 52 50 38 38 42 43 38 37 30 26 31 39 41 38 35 32 30 26 26 26 24 22 21 23 26 32 42 52 61 71 78 80 79 77 75 74 74 75 78 79 80 81 83 87 95 99 94
56 60 58 60 47 41 45 47 41 32 32 35 36 40 42 36 35 35 32 32 31 26 25 25 24 23 25 29 38 53 69 75 67 59 55 57 62 66 66 66 66 64 63 64 67 67 68 95 98
87 55 48 47 50 59 42 62 48 36 40 45 44 45 43 39 41 38 37 34 31 33 32 30 29 30 34 36 35 37 40 41 47 49 52 51 50 51 52 52 50 48 46 43 42 42 45 53 64
73 47 50 47 51 48 46 55 49 38 45 48 52 47 46 43 40 42 40 38 38 38 34 34 33 35 38 38 40 41 42 48 50 46 43 38 37 37 36 37 38 39 39 39 37 35 33 33 35
47 42 45 55 54 68 52 50 52 44 42 45 47 45 47 44 44 44 43 42 40 41 40 40 39 39 40 39 37 35 33 33 30 28 28 29 31 32 33 35 39 42 42 41 39 37 36 37 38
47 49 64 68 70 72 49 57 49 36 36 39 47 42 47 46 46 44 44 44 43 43 44 44 44 44 44 36 30 28 30 32 32 34 35 35 35 36 36 38 38 39 38 34 32 30 30 32 36
55 54 68 68 74 61 52 57 39 36 47 36 35 36 46 46 46 45 45 45 44 45 46 47 47 46 46 43 34 30 34 36 38 38 39 41 41 41 39 36 31 26 20 14 12 12 18 26 35
49 56 46 60 59 70 61 47 39 44 53 52 47 41 47 46 44 45 48 48 46 47 49 51 51 51 50 42 33 32 35 38 40 42 42 41 38 32 23 13 5 2 2 2 2 3 5 13 34
44 43 53 62 64 68 61 51 50 35 42 54 59 51 47 46 46 48 49 48 49 52 53 54 55 54 48 40 36 39 42 45 46 45 40 31 19 8 3 3 3 3 3 3 4 4 4 10 40
40 46 51 54 62 61 63 50 41 38 39 55 58 46 45 45 45 48 50 53 54 56 58 58 58 53 46 41 43 48 51 51 44 33 21 9 4 3 4 4 4 5 5 5 5 6 6 9 15
38 42 44 60 56 63 62 54 35 48 54 53 52 45 43 43 45 48 52 54 58 61 62 62 57 51 44 48 55 58 54 45 31 16 6 4 4 4 5 5 6 6 7 7 7 8 10 14 18

GFSSGP_850_rhum_015.txt.gz
RH
34 33 20 23 40 49 49 45 42 37 35 30 29 23 21 22 19 23 19 21 24 22 30 41 65 85 79 87 85 87 84 83 73 57 84 95 94 89 86 93 94 92 97 89 69 78 92 93 90
34 32 20 32 47 47 42 42 43 35 26 25 23 23 23 20 21 20 20 18 21 19 26 36 59 75 72 78 85 89 88 81 67 49 91 93 89 91 88 83 77 89 99 68 28 78 89 96 96
35 31 21 53 58 46 42 40 36 27 24 26 22 19 20 19 19 19 19 18 18 20 25 33 48 62 76 86 86 78 80 70 54 45 91 90 88 90 90 86 53 50 59 50 47 49 98 96 83
36 26 25 33 41 41 43 36 28 25 26 28 22 20 20 20 19 19 18 17 18 24 28 34 40 67 81 84 84 78 76 62 39 55 86 90 89 89 86 49 50 51 49 45 40 40 44 54 71
36 25 32 32 33 31 30 28 26 30 31 28 24 21 20 19 20 20 18 16 20 25 29 37 45 75 84 72 73 72 71 56 45 77 86 81 89 94 85 60 57 58 52 49 46 44 37 40 52
36 29 39 42 30 27 26 22 30 31 32 30 24 22 21 22 21 21 19 18 23 28 30 38 47 75 61 67 70 69 68 62 52 51 98 93 90 86 90 72 70 57 55 65 75 80 62 53 43
41 45 47 38 38 35 25 28 29 31 32 27 26 25 21 26 26 23 20 19 25 31 30 35 43 57 79 80 79 76 71 71 64 48 53 85 86 62 75 70 68 71 72 99 98 99 99 99 89
34 44 47 44 41 33 22 29 31 30 28 25 23 25 24 24 24 27 21 22 25 33 33 35 40 49 56 65 70 73 70 70 70 60 47 53 56 47 57 59 65 75 55 70 98 100 99 98 97
38 49 53 46 39 34 25 37 34 34 32 27 24 25 26 23 21 26 24 22 26 33 36 35 37 42 45 53 56 58 60 59 57 50 39 46 43 46 44 41 41 43 44 48 64 89 90 95 96
45 58 53 42 34 31 30 40 38 36 33 28 24 22 22 23 22 23 27 25 28 33 35 36 39 39 39 42 45 43 46 46 42 34 32 32 36 34 33 32 35 37 41 44 48 52 55 57 55
49 56 50 41 36 34 38 43 38 35 38 27 24 22 21 21 22 21 26 30 29 30 32 33 39 41 39 39 43 42 46 39 34 32 30 26 27 28 29 32 36 42 46 47 51 54 57 58 58
52 46 43 40 38 41 44 42 42 37 31 26 27 25 23 21 22 21 23 29 32 34 34 32 34 38 40 44 40 42 44 45 36 33 34 34 32 32 36 39 42 45 49 52 54 55 57 58 59
56 50 47 42 42 46 46 47 43 38 34 31 24 24 24 22 21 20 24 29 33 32 37 37 38 37 42 45 42 43 45 44 46 42 38 35 37 40 42 44 47 50 51 55 58 63 65 66 66
54 48 46 46 44 45 43 42 39 34 33 31 27 25 24 22 20 20 26 28 30 30 32 35 34 37 41 42 42 46 49 49 47 46 51 53 52 50 50 51 54 58 66 72 77 82 84 85 86
52 56 49 45 41 39 37 42 44 27 26 31 29 25 22 24 22 21 23 26 27 28 28 27 26 30 33 38 41 45 48 52 52 54 60 64 67 68 66 66 69 75 83 87 90 92 94 94 95
54 47 66 48 37 35 32 45 31 27 32 30 26 24 27 31 29 27 25 24 24 23 22 20 19 21 30 37 42 46 52 54 58 63 68 72 74 77 80 81 80 82 86 90 91 92 91 89 90
52 76 60 53 41 41 39 42 34 27 26 28 25 26 32 34 33 28 24 22 20 20 20 21 22 21 25 38 45 50 51 53 59 67 74 77 78 79 78 78 78 83 85 86 89 89 91 87 83
65 66 54 53 41 41 40 42 34 31 29 28 26 29 35 34 35 33 27 24 23 23 23 22 22 25 35 40 46 52 55 58 63 67 68 70 72 73 75 81 86 89 86 83 83 82 81 85 87
55 58 58 54 38 38 41 42 34 31 31 32 31 36 39 37 41 39 34 29 28 27 26 24 22 25 32 34 43 51 56 63 67 72 75 77 78 76 75 73 72 73 73 74 75 75 75 74 77
56 56 55 50 41 39 43 41 34 35 34 29 30 42 40 40 40 36 34 31 26 25 23 20 20 22 24 28 42 55 69 73 74 71 67 61 57 57 57 55 53 50 48 46 45 44 43 42 45
62 63 62 60 50 43 45 44 40 33 32 36 34 40 39 38 39 40 36 33 32 28 25 24 24 25 27 30 37 50 56 56 48 46 47 49 51 51 50 49 46 42 40 39 39 38 38 39 36
82 56 55 54 62 67 42 56 47 36 36 44 49 49 42 42 43 40 36 34 33 33 32 30 30 30 33 36 36 38 40 42 52 53 52 42 35 34 34 34 35 36 36 37 37 38 38 38 39
74 61 59 56 57 50 49 51 43 41 39 46 52 52 47 43 42 41 39 38 38 39 36 35 34 35 38 37 37 36 35 36 36 33 33 33 35 37 38 38 38 37 35 33 30 28 26 27 31
46 47 48 50 49 62 52 47 46 39 35 47 51 53 52 47 45 44 45 44 44 43 42 41 40 40 38 34 31 30 29 31 32 32 34 38 40 41 41 38 34 29 22 15 9 4 3 4 9
56 66 98 78 65 65 53 55 42 38 35 39 44 50 52 47 45 46 47 48 47 47 46 46 44 42 42 41 37 32 32 34 36 39 42 44 45 44 38 30 22 11 4 3 3 3 3 3 4
81 69 68 70 71 59 56 56 36 34 44 41 39 44 50 48 48 48 48 49 50 50 50 49 48 48 47 43 38 35 37 40 44 47 49 46 39 30 18 9 4 4 4 4 5 5 5 5 6
77 85 48 62 62 66 59 48 37 39 48 51 50 46 51 48 50 50 51 52 53 54 53 53 53 52 49 43 39 40 44 49 53 53 46 37 25 15 8 4 4 5 6 6 7 7 7 7 7
57 49 70 60 65 69 61 53 47 36 38 55 57 57 55 50 53 53 54 55 57 57 56 57 56 53 48 44 43 48 55 55 51 45 38 27 14 6 5 5 6 6 7 8 8 8 9 8 9
56 67 57 53 61 61 58 45 40 38 39 44 56 50 50 51 51 54 56 59 60 60 61 60 57 53 47 46 53 60 57 53 46 37 25 12 6 6 6 7 7 8 8 9 10 10 10 10 12
43 49 47 58 60 62 57 49 37 48 48 51 56 46 46 46 51 56 58 61 64 64 64 63 58 51 50 57 65 63 56 48 36 24 12 7 6 7 8 8 9 10 11 12 12 11 11 16 25

GFSSGP_850_rhum_021.txt.gz
RH
31 38 28 33 24 20 20 17 20 27 26 21 20 20 19 18 17 24 38 45 29 56 64 36 70 86 86 76 81 81 78 80 79 70 66 89 93 89 81 88 95 92 99 76 71 71 82 87 85
31 32 28 25 23 22 16 14 23 22 21 20 20 20 19 17 17 29 37 38 32 56 66 72 77 83 82 80 85 81 78 77 74 63 56 88 89 88 86 89 79 82 85 63 58 72 82 85 88
37 32 25 23 21 20 21 19 18 20 21 21 21 18 16 17 21 27 39 29 32 57 64 84 56 82 81 82 82 80 77 76 69 46 69 85 90 87 93 93 74 67 64 58 48 47 74 73 69
37 28 23 26 25 16 19 22 21 19 21 21 21 20 18 27 28 42 43 42 54 58 64 38 39 79 82 73 78 84 80 69 55 36 81 83 86 83 89 89 86 74 64 56 49 33 35 37 34
37 27 26 27 25 18 10 15 17 20 21 21 22 21 20 33 40 43 51 47 52 58 66 30 35 63 71 84 83 80 78 59 42 45 85 85 85 95 88 92 83 78 67 54 52 45 55 54 45
34 27 30 27 24 21 18 13 16 19 20 20 20 21 25 35 40 48 52 53 55 62 69 59 35 58 76 79 77 78 74 57 43 42 72 87 86 86 93 92 86 78 63 66 45 87 90 91 81
35 29 32 25 22 25 22 15 16 19 20 19 21 20 23 32 40 42 56 54 58 65 69 74 42 50 71 74 85 84 73 57 54 38 42 88 82 88 87 65 63 49 49 59 40 50 81 76 81
34 28 34 28 26 25 21 18 16 22 20 21 21 20 21 33 36 40 57 56 59 65 68 70 76 77 91 76 76 92 87 68 61 51 46 37 34 46 52 43 39 36 34 34 35 42 46 56 55
40 36 36 30 27 23 21 23 22 27 26 22 20 21 24 26 37 45 52 56 56 61 67 69 72 77 85 85 90 74 64 74 58 42 46 32 38 89 89 84 39 35 37 40 44 46 48 50 49
41 39 33 23 21 23 22 26 28 29 25 22 21 19 21 22 24 25 31 38 52 56 63 69 71 74 82 83 86 91 94 92 84 91 86 85 76 77 74 45 33 34 38 42 48 51 53 54 62
41 42 28 25 24 26 25 28 27 29 30 26 22 21 23 24 23 21 23 28 34 46 54 62 68 73 76 83 85 83 86 84 83 82 82 79 74 73 77 81 71 50 60 52 63 70 78 86 88
43 34 31 27 29 32 31 28 29 29 29 28 29 28 28 27 21 21 21 24 32 40 46 54 62 69 74 77 85 79 82 84 82 82 82 83 81 81 79 78 81 84 84 87 89 91 88 90 90
44 34 32 31 30 33 33 31 32 31 30 29 28 28 28 28 24 21 23 32 35 41 47 53 58 64 69 76 78 81 80 85 83 89 88 86 86 83 79 82 84 86 89 89 90 91 91 91 89
46 36 34 31 32 32 33 31 31 30 29 27 25 24 24 25 26 27 31 37 41 45 51 55 58 60 63 70 79 80 84 84 88 88 93 95 95 94 94 93 94 94 93 93 93 93 95 95 93
48 47 36 34 32 31 32 36 34 29 27 24 19 18 20 26 32 33 39 40 39 42 42 39 38 48 62 66 74 82 86 90 89 92 94 97 94 96 92 95 98 97 95 96 97 98 98 97 96
47 58 66 36 31 31 35 45 27 23 24 20 18 19 24 33 34 39 42 41 35 32 34 28 22 23 44 70 77 83 87 91 93 95 96 97 98 99 98 100 98 99 98 98 98 96 93 89 88
60 65 63 51 29 30 34 40 25 24 23 21 19 18 24 32 36 42 43 43 39 43 50 27 31 42 55 79 85 88 91 90 94 94 96 100 100 95 97 99 97 91 90 85 82 73 73 72 66
66 61 55 53 31 33 36 35 27 25 22 22 20 17 23 29 35 43 47 48 50 54 54 47 46 55 74 86 86 88 94 97 94 88 86 84 77 73 70 60 47 41 51 51 42 48 47 46 54
46 49 50 36 26 30 32 33 26 22 23 22 21 18 22 30 41 45 48 50 50 56 67 72 74 78 79 82 85 82 80 75 73 71 66 53 45 42 36 31 33 34 38 49 42 44 44 44 54
52 48 43 30 28 33 33 31 26 23 24 24 21 19 22 34 39 44 45 44 46 50 49 56 71 82 86 78 77 74 72 67 52 45 45 39 31 31 35 38 39 39 38 38 36 38 41 45 46
61 53 37 35 32 34 35 38 32 27 25 23 21 19 24 34 37 42 46 51 52 43 33 32 35 37 41 46 48 48 48 58 54 43 33 33 35 38 41 40 35 32 30 30 25 25 23 38 32
71 38 37 35 46 49 36 42 25 22 24 23 21 21 27 33 36 40 48 55 54 40 36 33 33 35 45 54 54 59 50 36 32 33 36 40 43 43 36 35 34 30 26 18 10 14 12 36 46
50 38 38 39 43 50 52 51 30 22 23 23 21 24 31 35 37 44 52 59 56 43 39 36 35 36 37 35 32 31 31 32 35 41 45 44 40 39 39 36 32 26 17 9 7 8 9 16 41
49 43 44 44 48 70 45 42 29 26 22 19 22 28 34 36 41 50 60 63 51 44 41 38 35 34 34 34 34 34 35 39 43 45 43 43 43 42 39 35 26 16 10 7 7 8 8 9 16
55 62 92 83 76 51 30 37 27 22 22 21 25 30 35 39 45 55 60 64 66 62 47 44 40 39 39 38 38 38 40 43 46 46 49 48 43 41 39 33 20 10 7 7 8 9 10 13 23
73 61 49 64 54 40 34 41 27 21 22 22 26 32 36 41 47 54 57 63 70 67 59 49 45 43 42 41 41 42 46 48 50 52 50 47 43 39 34 25 14 8 7 9 11 12 20 31 32
69 54 38 39 34 35 37 30 23 23 28 26 25 32 38 42 47 50 58 64 70 69 65 52 48 46 44 44 44 48 51 54 55 52 49 45 40 33 24 14 8 8 10 14 18 21 27 31 32
56 38 56 41 48 44 34 29 29 26 24 28 26 32 38 42 46 50 59 64 67 68 62 55 52 49 47 46 50 55 58 56 54 50 45 40 32 22 11 8 8 10 13 19 21 23 26 32 34
71 58 54 39 38 37 37 29 21 23 24 25 27 31 38 42 47 52 58 65 68 67 58 57 54 52 49 52 58 59 58 55 52 47 41 31 15 9 8 9 10 15 19 22 25 28 32 34 39
57 54 48 47 49 35 33 32 21 23 27 27 27 32 38 44 47 53 59 68 69 67 62 60 58 54 52 59 61 60 57 54 48 41 30 14 9 8 9 12 17 22 24 27 31 34 36 38 44

GFSSGP_850_rhum_024.txt.gz
RH
27 26 32 32 44 36 34 25 16 26 25 20 20 21 23 20 21 42 42 38 52 48 33 33 77 83 84 81 84 87 76 70 78 71 55 89 91 83 82 77 91 92 98 76 67 77 87 98 94
28 26 29 29 38 34 30 17 25 24 21 20 20 20 20 20 25 36 49 40 54 52 43 32 75 87 83 80 84 87 70 75 74 60 55 94 89 90 88 84 74 63 59 55 51 70 79 86 86
35 34 30 41 41 32 26 25 27 20 20 20 21 20 18 25 27 39 47 31 49 47 60 62 69 81 82 78 83 85 76 78 65 45 68 87 88 89 96 92 75 63 57 46 40 41 64 74 77
41 30 29 36 38 29 16 17 23 20 20 20 20 24 25 33 34 42 45 45 53 56 61 58 54 75 82 75 84 79 78 73 52 33 76 85 85 88 90 92 85 72 64 46 37 30 27 37 42
39 35 41 39 32 25 14 10 18 19 21 21 21 25 29 37 40 47 48 50 54 59 60 38 31 64 76 74 79 75 77 65 45 39 82 86 83 92 89 94 85 79 66 44 27 27 34 35 30
39 32 44 42 29 21 18 17 13 16 18 20 21 22 34 35 38 36 46 49 54 59 53 29 27 47 65 75 72 72 71 56 46 41 72 84 86 82 95 87 74 53 37 29 28 30 37 43 40
44 44 45 38 31 25 22 15 14 18 20 20 21 22 33 34 26 46 52 52 58 61 57 36 30 39 59 74 66 66 56 47 43 36 38 65 77 80 83 68 36 29 25 25 29 34 37 45 49
44 41 43 37 37 33 21 19 15 17 22 23 20 23 30 32 26 29 49 55 59 63 63 58 45 42 46 47 39 45 29 46 41 34 31 32 33 43 45 39 31 30 30 33 36 39 41 43 43
45 53 52 40 35 31 20 22 20 23 25 24 23 20 24 23 27 33 39 51 56 61 66 69 71 68 65 72 78 79 61 27 24 27 26 38 31 63 82 71 43 32 34 37 40 42 44 45 46
51 59 50 31 27 27 22 24 26 28 27 25 24 22 20 22 22 23 25 35 44 54 62 67 70 74 83 84 84 78 60 73 60 68 70 76 72 78 82 73 45 38 39 42 45 48 51 56 58
52 60 41 31 26 24 25 27 25 28 34 28 26 27 27 26 26 25 21 23 30 39 53 60 67 72 76 82 82 86 86 86 83 84 82 81 78 62 70 71 67 60 50 50 51 51 57 67 68
55 44 39 34 30 28 31 29 31 28 29 29 28 28 28 28 28 24 21 21 25 36 45 54 61 68 73 78 83 83 82 84 84 82 82 83 81 78 73 77 79 80 80 71 78 83 85 90 91
56 45 37 33 32 31 30 33 34 31 30 30 29 28 27 27 28 26 21 22 29 35 41 47 54 61 67 74 79 79 81 82 84 84 87 86 84 80 81 81 83 83 86 90 91 93 94 94 93
48 49 44 38 32 30 32 33 32 31 29 29 29 28 25 24 26 25 24 29 37 40 45 50 54 58 64 69 76 80 82 82 85 86 90 94 89 89 87 82 94 95 97 94 94 94 91 91 90
42 55 47 45 35 34 31 38 38 32 30 29 28 26 18 19 24 28 31 34 36 43 48 52 55 58 60 64 72 81 84 86 87 92 92 96 94 97 96 96 96 94 95 91 90 90 90 85 84
60 57 74 49 46 34 36 50 36 31 28 29 26 19 19 24 30 34 37 37 36 38 37 39 33 34 55 64 72 81 85 89 91 92 94 95 97 98 95 97 96 94 90 87 83 82 75 61 61
72 82 68 62 43 38 37 46 34 31 28 26 23 21 20 29 34 38 41 44 45 47 49 32 27 29 44 70 78 82 87 91 94 92 94 97 99 96 98 96 76 64 67 60 47 36 40 39 38
78 82 61 67 51 43 44 39 35 29 27 24 22 21 22 29 34 41 45 49 53 56 53 41 44 52 70 80 85 88 88 93 96 98 94 85 72 69 59 43 33 34 37 39 39 38 36 35 35
57 59 62 48 38 45 45 39 35 29 29 27 25 22 22 29 36 42 49 53 64 71 72 60 57 66 74 84 91 93 92 83 74 70 61 47 40 30 31 36 38 38 36 33 32 30 28 26 21
67 75 71 50 38 42 41 37 34 30 28 25 24 23 22 35 40 46 48 51 61 74 79 78 80 82 86 88 84 75 69 67 54 46 38 30 31 35 38 39 35 33 32 31 29 22 19 14 14
61 76 72 79 41 35 40 46 40 30 25 23 23 24 24 32 41 44 46 49 54 63 64 74 76 74 76 71 65 61 50 49 40 32 32 35 39 40 38 38 38 37 34 30 20 15 11 11 10
71 58 63 77 56 67 43 66 42 34 31 29 26 24 32 36 40 44 51 54 54 53 49 48 50 53 54 52 51 49 44 36 36 36 40 41 40 41 41 40 38 35 31 24 16 11 9 9 10
63 56 76 72 73 70 60 63 50 34 32 31 29 22 33 35 39 46 55 59 56 53 49 49 48 50 55 56 48 35 32 34 38 42 43 43 45 45 44 42 38 34 29 19 12 10 9 9 11
61 68 85 86 68 86 56 65 51 36 31 30 28 25 34 36 40 49 59 64 59 53 48 43 39 37 35 34 35 35 37 40 44 44 47 47 46 47 44 42 37 30 21 14 10 9 8 9 11
69 90 99 100 99 89 50 55 46 26 24 25 28 31 35 36 44 55 62 66 59 53 48 42 37 36 36 36 37 39 42 45 47 49 50 50 49 48 45 40 33 23 14 9 9 8 10 13 16
87 95 92 97 91 59 38 58 41 27 24 22 26 32 36 41 49 58 65 66 62 54 52 45 42 40 40 40 41 44 46 48 51 52 53 52 49 45 41 33 21 11 8 8 9 12 15 19 22
87 99 76 52 38 51 49 34 26 32 32 29 33 36 39 43 52 58 64 68 65 60 56 49 46 44 43 43 44 47 50 53 54 54 52 48 43 36 28 16 11 9 9 12 16 20 22 23 22
85 70 71 66 59 63 54 46 42 37 39 32 38 40 41 44 52 56 63 69 68 64 60 54 50 46 45 46 48 51 54 56 55 54 50 45 35 25 15 11 10 10 13 19 22 23 22 22 27
97 85 64 52 50 61 58 45 32 31 34 35 36 39 42 44 51 55 62 67 67 65 62 58 53 50 48 50 52 56 58 57 55 52 50 43 28 15 11 10 10 14 19 23 24 22 23 28 35
68 60 57 55 65 56 46 45 28 32 30 34 30 38 41 44 49 56 62 67 67 64 64 58 54 52 51 53 57 59 59 57 54 53 46 35 20 12 10 11 15 20 24 25 24 27 31 37 33

GFSSGP_850_rhum_027.txt.gz
RH
26 24 28 30 38 45 42 32 19 30 27 22 21 21 24 25 27 44 51 48 34 38 31 38 80 78 79 84 82 84 78 64 68 59 50 90 86 84 82 81 76 90 84 53 56 73 73 97 95
29 25 30 30 39 38 36 24 30 27 22 21 21 21 22 27 36 48 47 42 47 38 31 37 74 83 81 78 81 83 73 65 61 51 52 94 94 92 88 78 56 52 49 42 34 54 61 65 82
32 30 36 46 51 44 30 22 26 20 20 22 22 21 23 34 44 48 48 40 44 40 43 36 72 80 83 79 82 82 74 64 47 36 70 89 88 89 94 90 79 56 48 36 28 27 40 47 55
41 34 32 40 43 34 28 18 22 20 18 21 21 26 35 36 37 42 39 42 44 42 44 43 52 71 76 80 82 83 67 65 34 27 78 87 90 87 89 90 70 50 37 23 21 21 19 20 26
46 41 49 47 43 34 27 13 18 19 21 22 21 25 36 43 41 44 42 54 50 48 51 46 36 60 74 72 77 79 66 56 34 33 56 70 83 86 85 91 66 57 34 24 20 22 25 28 31
49 42 57 57 46 33 26 17 14 16 16 19 23 24 38 45 43 51 46 54 53 52 51 37 25 45 62 65 75 72 67 51 37 30 45 57 74 80 88 88 73 41 31 29 30 30 33 35 35
59 62 61 51 47 39 28 16 16 18 23 24 21 26 37 32 30 49 50 54 55 54 44 39 27 36 51 65 68 62 62 46 39 31 26 34 50 64 74 73 39 31 32 33 34 37 39 41 43
58 59 60 55 49 44 27 18 14 17 22 24 22 28 35 29 26 35 50 53 54 56 50 49 36 36 44 50 44 44 48 41 37 33 27 26 28 35 41 39 38 38 36 38 40 42 44 45 46
67 74 73 61 49 39 29 23 21 22 24 25 24 24 22 23 24 28 33 40 50 56 53 54 56 51 49 50 58 78 67 43 31 30 33 51 36 59 69 54 48 41 38 38 42 44 49 52 56
72 84 68 45 40 36 30 25 25 29 30 29 26 26 24 24 24 27 27 30 36 44 47 53 61 60 59 75 76 82 71 66 60 68 64 65 70 67 75 69 58 55 53 49 51 56 58 61 65
68 79 55 45 38 36 32 30 27 29 33 30 29 30 28 29 29 27 25 22 24 30 44 48 55 66 63 65 82 80 78 74 76 78 82 80 79 77 69 67 70 70 68 64 64 64 70 78 84
80 63 59 50 45 43 36 30 32 30 31 29 29 29 30 29 28 28 26 22 24 31 39 46 52 63 73 78 80 76 82 84 84 84 83 84 84 80 79 79 79 76 77 80 86 86 90 93 95
69 57 54 51 46 42 37 36 35 34 31 30 29 28 29 29 28 27 27 22 22 29 41 47 52 57 69 75 79 82 83 84 85 84 86 85 83 82 80 83 82 85 90 94 92 90 90 89 89
52 53 53 56 50 41 38 38 36 32 32 32 30 30 29 29 26 26 28 25 25 30 43 47 49 53 66 70 77 80 82 81 83 85 89 91 90 86 87 86 86 92 90 91 88 90 89 88 90
57 60 49 46 52 52 45 45 44 32 32 32 31 30 29 29 23 25 26 26 28 40 46 48 51 54 63 69 72 79 78 82 84 87 87 91 94 91 94 97 96 94 90 89 84 84 84 72 45
69 73 76 50 52 50 46 59 42 33 32 33 32 31 30 23 24 25 26 26 32 41 48 51 53 56 58 65 73 78 79 86 87 90 88 88 93 96 98 96 92 91 89 85 75 53 34 35 37
88 90 84 68 51 52 53 58 40 34 33 33 32 29 28 25 24 25 28 31 32 33 37 41 41 46 60 64 78 75 79 80 84 88 92 93 97 98 96 94 86 66 44 34 35 37 35 31 28
77 89 81 84 55 56 60 60 45 33 33 35 31 30 24 26 28 30 32 36 42 46 46 43 36 34 56 66 79 75 83 85 93 93 93 94 89 88 66 37 33 37 36 34 32 30 29 26 23
68 76 80 66 51 56 55 55 49 40 33 37 31 26 27 33 35 37 39 44 57 60 54 54 57 58 64 75 80 82 86 91 91 94 82 55 38 31 36 37 36 35 35 34 33 30 28 25 20
75 84 84 65 57 57 56 58 45 39 38 34 32 28 31 41 40 39 43 55 72 76 73 72 73 79 78 80 84 85 87 88 76 54 37 32 35 38 38 38 38 36 36 34 30 25 20 17 12
74 83 79 70 62 61 64 63 54 42 34 32 30 27 32 36 39 45 49 58 79 81 84 84 84 84 81 79 82 78 70 56 40 32 34 38 40 40 41 42 42 40 38 33 26 19 14 12 12
76 54 54 60 72 86 58 92 60 45 40 36 29 28 33 40 43 48 47 52 71 83 86 86 85 87 85 75 62 49 40 36 34 36 40 41 43 44 45 45 45 43 36 28 20 15 12 10 10
69 52 60 61 76 84 76 83 65 44 46 37 32 34 39 39 42 46 46 48 61 63 74 78 72 68 59 48 42 40 34 34 38 42 42 44 46 48 48 48 44 37 31 23 16 12 10 10 11
55 65 69 69 77 97 81 90 73 53 40 37 35 38 44 46 47 50 51 50 56 60 57 55 51 54 55 55 49 34 34 38 42 43 47 48 50 50 48 44 37 32 22 14 11 10 11 12 14
70 84 90 97 96 85 72 82 72 39 33 33 37 45 46 46 52 56 57 56 58 59 56 54 52 53 52 40 36 37 40 43 45 49 51 51 51 49 43 33 29 20 13 11 11 11 12 16 19
83 81 87 87 73 69 72 99 55 39 31 30 38 43 47 54 56 56 57 57 58 54 48 44 41 38 39 38 39 41 44 47 50 52 53 51 49 45 35 27 20 14 12 11 12 15 19 21 20
75 92 62 94 97 80 71 52 32 35 40 44 45 48 58 61 57 58 60 57 57 53 46 41 40 40 40 41 43 45 48 51 53 54 53 52 48 39 29 22 16 12 10 14 18 22 23 21 19
71 59 91 99 95 98 68 51 48 44 42 47 48 50 60 62 60 60 61 60 60 54 51 47 44 42 42 44 47 49 52 54 55 55 55 53 45 34 25 17 11 11 15 20 24 24 21 19 18
91 91 79 78 72 96 79 58 39 43 38 47 48 49 59 59 58 61 65 67 64 59 55 51 48 46 45 47 50 53 55 57 57 57 57 50 38 25 16 11 11 15 20 24 24 22 21 22 24
71 75 78 86 100 86 60 51 35 39 39 42 47 49 55 54 57 61 66 70 67 64 60 54 52 49 48 51 54 56 58 59 60 60 53 39 26 14 10 12 15 22 24 23 22 22 22 28 38

GFSSGP_850_rhum_030.txt.gz
RH
31 27 26 29 37 45 43 36 24 29 29 23 22 22 24 28 28 38 48 50 44 45 39 43 73 78 79 83 80 73 70 52 51 44 41 64 70 78 78 83 70 81 49 42 58 74 67 87 92
37 28 30 31 44 40 35 28 28 24 22 23 24 22 25 39 43 44 46 40 40 35 29 43 75 79 79 81 83 77 67 49 49 44 50 97 96 90 84 63 50 47 42 34 30 47 59 69 69
39 34 35 49 55 49 35 23 29 22 20 23 24 25 30 39 47 42 46 36 40 37 30 42 73 83 82 83 83 74 72 50 40 34 60 93 89 88 81 77 63 48 41 31 27 28 39 45 55
43 40 37 48 47 42 33 30 22 22 18 21 23 34 36 38 42 40 34 35 41 40 35 39 72 81 88 82 82 75 78 55 31 29 75 88 90 89 89 74 61 57 44 33 26 27 25 27 32
47 46 54 53 50 39 31 26 21 22 21 21 23 29 40 43 39 39 34 42 45 43 50 47 61 73 81 80 79 79 71 53 32 31 62 83 90 89 90 87 66 46 29 27 26 27 30 34 40
54 48 65 62 48 37 34 26 19 17 21 22 24 33 40 45 48 46 50 51 53 47 52 56 48 62 77 75 68 76 67 52 38 34 53 64 77 88 90 86 72 36 29 28 31 34 37 38 46
66 68 67 57 51 48 35 27 18 19 24 24 23 36 38 34 34 44 50 54 56 54 54 51 37 49 70 68 65 73 57 52 42 35 36 45 60 69 71 70 46 33 32 35 38 40 42 43 45
62 68 69 63 58 52 34 25 15 18 21 24 23 38 37 31 32 45 46 50 55 54 55 50 34 36 46 53 62 58 48 50 47 37 29 29 33 41 47 49 45 42 38 38 41 44 46 49 54
76 85 84 66 57 47 31 30 25 19 22 24 25 27 26 28 36 51 51 52 52 50 47 46 48 37 43 49 51 58 68 62 42 35 37 45 38 47 64 59 57 47 46 46 48 52 56 59 63
85 96 80 56 48 46 37 31 30 30 31 30 28 28 26 27 33 40 39 36 37 41 42 43 47 50 54 59 62 77 76 62 55 59 62 67 64 62 59 62 60 62 64 62 60 62 65 68 76
81 88 64 54 46 42 44 38 34 31 36 30 30 31 30 29 30 32 31 33 27 27 40 44 48 52 58 59 70 77 75 74 74 76 77 78 73 74 67 63 64 70 72 74 77 82 86 89 90
82 70 66 62 56 53 53 42 37 33 29 28 29 28 29 30 31 31 30 29 24 23 33 41 48 52 56 65 73 80 80 82 79 80 84 84 81 81 80 79 80 82 86 90 93 91 92 92 91
74 68 61 61 60 58 53 51 46 39 35 30 29 29 27 29 29 29 28 28 23 24 29 39 49 52 55 64 72 80 81 85 86 86 86 86 86 85 83 83 86 89 92 93 91 88 87 86 83
58 57 58 58 58 59 56 52 46 40 35 33 32 30 27 26 28 29 28 28 28 22 24 40 50 56 60 68 75 82 83 80 80 82 85 87 90 91 91 92 94 88 91 90 85 84 83 82 77
64 73 62 56 49 53 53 65 60 44 37 33 32 31 30 30 29 29 28 26 28 26 23 39 53 60 67 73 76 84 78 79 86 86 89 89 90 93 96 96 94 90 89 89 86 83 82 78 44
75 74 85 54 51 51 55 76 53 42 37 36 34 32 30 32 32 30 26 28 27 27 28 42 56 61 63 71 76 83 76 80 81 85 82 85 87 94 94 95 91 88 86 84 79 43 35 35 33
85 95 84 75 49 57 64 64 51 44 39 38 35 32 33 32 31 27 28 27 28 32 44 50 54 59 60 66 77 81 76 79 81 79 88 85 92 95 96 93 91 75 46 35 36 34 32 31 30
78 86 85 81 66 56 63 65 56 45 42 39 35 33 33 33 30 28 28 26 28 30 35 44 50 56 60 62 73 82 77 79 86 86 85 90 93 91 86 49 36 37 36 35 34 32 30 27 25
75 79 88 73 60 69 66 61 51 48 49 45 41 34 33 33 31 34 34 30 30 37 40 42 41 40 45 62 72 82 77 79 82 86 92 91 72 39 36 37 37 36 36 36 35 32 28 24 22
91 92 86 66 56 58 71 73 58 48 44 45 41 38 34 31 36 38 36 34 38 44 48 49 47 42 58 66 81 81 81 87 86 92 74 37 35 38 39 39 40 42 43 40 34 29 24 19 14
80 93 84 82 65 56 53 65 62 51 47 41 40 37 35 33 34 39 39 41 51 55 58 68 70 80 82 80 83 85 88 91 83 52 33 37 39 41 42 44 46 46 42 34 29 23 18 14 12
87 68 70 68 65 90 63 83 64 55 51 47 40 38 36 36 36 41 47 58 64 64 70 75 81 86 86 85 84 82 80 70 41 33 37 40 43 44 47 48 47 40 33 29 22 15 13 12 13
74 55 59 60 61 71 69 85 70 58 55 50 44 38 35 35 36 43 47 61 77 73 77 83 84 85 85 78 66 65 52 36 33 38 41 44 46 48 50 48 39 30 27 20 15 13 13 14 15
60 66 69 70 75 97 66 76 65 64 54 47 42 38 35 44 46 51 59 72 84 87 85 86 89 88 82 62 47 39 32 33 38 41 44 47 50 50 49 41 30 26 20 16 14 14 14 16 20
61 84 96 97 96 82 53 76 58 60 54 41 36 39 38 49 50 55 62 69 74 82 86 84 81 70 53 48 42 35 36 40 42 45 49 51 51 50 44 34 26 22 16 14 13 14 17 19 20
80 78 92 93 99 62 74 86 66 50 38 36 38 36 52 60 54 55 57 62 64 65 64 59 54 52 56 51 37 38 42 44 46 50 52 52 52 48 39 29 23 18 13 12 15 17 20 21 19
84 95 63 88 82 98 82 75 56 52 46 48 49 56 63 69 63 58 59 59 62 62 60 57 56 56 53 41 40 42 45 48 51 53 54 54 53 46 36 27 20 12 12 15 18 22 21 18 16
62 62 89 95 98 98 88 72 41 48 56 59 58 61 70 79 76 64 62 61 62 60 58 54 49 43 44 42 42 45 48 52 54 55 56 56 50 39 28 19 12 12 15 21 23 20 18 17 18
97 89 75 65 78 95 98 78 40 37 47 57 58 64 75 80 70 65 65 62 58 54 48 45 43 42 43 44 46 49 52 55 57 58 59 54 41 29 18 12 12 15 22 23 20 19 19 22 28
72 74 69 76 70 70 98 74 45 41 48 47 53 65 74 75 72 66 65 62 59 54 50 47 46 44 44 46 50 53 56 58 60 62 56 44 30 17 12 13 17 24 22 19 18 20 22 28 33

GFSSGP_850_rhum_033.txt.gz
RH
34 29 25 29 42 47 42 37 28 28 28 24 24 25 27 29 28 36 43 48 39 43 43 50 79 84 85 86 82 65 57 48 46 42 37 48 49 49 46 76 72 61 39 40 70 75 94 91 91
38 31 27 31 49 47 36 31 30 27 23 24 24 26 27 41 42 41 41 41 42 37 33 38 70 80 88 86 83 79 61 47 45 43 67 95 96 96 57 48 47 47 46 37 35 62 67 81 83
44 35 32 51 58 56 39 26 29 26 22 23 25 30 34 41 41 36 42 34 37 34 26 39 66 79 87 81 84 80 70 53 41 38 74 98 97 94 81 68 57 58 43 31 28 30 45 54 58
43 42 38 51 53 48 36 32 28 27 19 23 25 35 38 38 41 43 40 34 37 34 26 42 63 78 81 84 84 73 76 64 40 33 71 94 95 94 88 68 58 53 37 26 22 22 23 24 28
48 47 57 58 56 43 35 29 27 26 22 21 22 30 39 38 36 37 35 33 42 40 32 39 64 75 86 86 82 74 78 64 38 33 74 87 93 92 96 84 72 49 31 29 28 28 30 33 35
56 50 70 63 51 40 37 29 28 22 19 24 25 37 40 40 39 37 38 42 49 47 46 46 58 72 88 88 76 72 74 65 41 34 63 74 85 94 93 87 81 45 35 34 35 38 40 42 44
68 68 72 60 53 47 39 29 28 23 22 25 23 37 37 40 37 47 47 51 51 54 54 54 52 67 85 80 70 69 74 64 44 35 41 49 68 89 85 76 49 36 36 38 40 43 44 46 49
67 73 74 69 59 52 35 29 24 20 23 25 25 39 32 31 32 50 53 54 55 54 56 55 46 39 56 70 68 69 71 57 48 38 31 33 46 54 56 44 44 43 43 42 44 48 49 56 63
76 85 87 66 63 49 36 34 29 28 23 25 26 28 27 28 32 46 51 54 57 56 56 55 49 33 41 55 62 66 63 65 51 42 40 46 35 36 65 60 61 56 62 60 60 63 66 70 74
88 96 77 59 52 48 37 36 35 32 33 30 29 28 26 30 30 37 39 38 40 41 44 51 49 46 40 52 61 59 80 79 60 53 64 60 62 66 68 66 66 69 71 73 74 78 82 86 90
87 86 66 62 52 47 49 44 41 37 39 32 30 30 28 31 34 34 32 33 31 30 39 43 49 51 53 54 61 70 83 73 73 70 75 75 70 73 71 69 72 74 78 82 85 92 93 93 92
80 70 72 67 61 62 60 50 44 38 35 32 33 32 31 31 31 33 34 34 34 31 32 37 46 53 58 64 71 79 81 82 81 83 85 84 83 83 79 78 78 80 86 92 92 91 92 92 88
75 71 65 61 64 64 61 65 62 53 48 41 39 34 31 30 30 30 30 31 31 31 26 31 46 51 58 65 74 81 83 86 87 87 88 88 88 87 86 85 85 89 90 90 88 88 86 84 84
64 64 63 56 56 59 62 61 60 53 48 45 42 36 32 30 29 28 28 29 29 28 26 23 34 50 58 64 70 78 85 87 86 84 86 89 89 91 95 95 96 95 89 89 89 84 83 79 79
71 80 69 63 55 56 50 59 61 54 55 50 44 37 33 31 29 30 29 28 29 27 28 26 26 48 57 62 70 80 83 80 80 80 81 85 87 88 89 96 93 88 87 87 86 83 83 78 55
78 79 88 57 58 54 51 64 54 47 47 51 46 39 35 32 31 31 31 30 28 26 28 28 27 49 60 68 75 84 79 77 77 82 80 87 85 85 87 89 91 88 85 84 78 44 36 35 33
86 91 90 73 53 56 66 64 48 40 48 47 43 38 36 34 32 32 31 29 28 30 30 29 32 53 64 72 78 86 76 78 84 92 91 91 86 86 93 94 91 76 43 36 36 34 33 31 29
78 80 83 81 61 62 64 64 59 49 52 52 48 44 39 35 33 32 32 31 31 34 37 43 47 58 66 70 78 86 82 87 93 95 93 91 83 87 92 79 38 37 36 35 35 36 33 29 27
85 86 87 77 62 72 77 76 66 56 52 52 52 47 44 36 33 32 32 32 34 33 34 43 56 62 65 66 77 86 84 89 90 92 87 85 88 85 39 37 38 37 38 40 40 32 29 27 24
93 93 91 75 64 63 65 65 58 46 47 53 48 48 43 40 37 33 32 34 34 34 37 41 43 51 58 64 71 81 75 79 79 78 81 91 59 35 38 40 40 44 43 37 29 29 26 21 17
84 92 80 81 68 65 71 61 43 38 45 50 50 45 41 37 37 35 32 35 35 36 38 43 47 47 49 63 73 86 81 77 80 80 87 52 35 39 42 44 47 45 34 27 27 25 20 17 15
88 70 71 76 85 94 62 79 53 47 49 51 48 48 44 41 38 37 33 39 36 45 47 56 55 53 66 77 79 82 81 78 87 82 49 34 40 43 46 48 47 36 28 26 23 20 17 15 14
74 60 72 79 87 86 72 88 63 51 48 49 58 49 44 41 39 36 35 38 44 53 55 73 78 84 86 86 85 85 86 88 79 44 34 40 43 47 49 49 41 31 26 24 20 17 15 14 17
63 73 78 94 80 95 67 81 57 45 51 56 54 48 44 40 40 38 38 50 59 66 69 85 90 92 92 91 91 88 83 70 42 34 40 44 48 50 51 46 38 29 24 20 17 14 14 17 20
63 99 97 97 97 85 58 72 58 44 50 52 51 45 40 40 44 43 47 68 69 73 82 89 91 91 90 81 73 68 52 35 35 40 44 48 50 52 50 43 34 25 21 17 13 14 18 21 21
79 86 92 95 90 77 58 79 56 41 34 29 28 41 40 46 49 45 53 65 71 76 85 90 94 91 85 67 51 41 35 38 42 45 49 51 53 53 49 39 28 21 15 13 14 17 21 20 18
95 96 68 88 93 96 79 64 46 40 43 53 50 38 41 48 59 55 63 68 77 81 85 87 89 85 62 51 44 39 41 44 46 50 52 54 56 53 42 29 21 14 13 14 18 21 19 16 15
74 67 94 98 93 93 81 76 48 40 30 21 52 60 59 66 74 76 72 72 78 83 85 82 77 62 58 54 42 42 45 48 51 53 55 58 56 46 32 22 14 13 15 20 22 18 16 16 15
92 98 80 69 86 96 99 66 55 39 31 34 64 66 73 78 82 79 74 70 69 71 70 66 64 62 60 47 45 45 48 52 54 57 60 58 49 36 24 15 13 14 20 22 18 16 15 15 16
69 81 78 77 88 74 95 69 46 56 50 58 73 73 83 90 86 76 68 66 66 65 65 64 61 56 50 46 46 49 52 55 57 61 60 52 41 26 16 14 15 22 22 18 17 16 15 15 20

GFSSGP_850_rhum_036.txt.gz
RH
32 32 27 27 41 48 43 36 31 30 30 26 26 26 29 28 31 39 39 37 34 44 40 59 83 92 83 81 76 63 50 43 42 41 42 47 60 72 54 54 80 50 41 46 87 86 96 91 97
34 32 28 30 48 51 46 32 32 28 24 23 27 31 29 37 41 39 40 36 31 39 34 45 80 84 86 86 80 68 59 47 45 44 47 93 85 55 49 48 49 48 44 38 51 73 90 92 93
38 38 31 49 60 56 45 27 30 28 24 24 28 31 32 39 43 36 38 30 32 36 30 38 65 76 84 88 81 79 69 59 44 45 88 98 96 86 60 56 52 51 36 30 28 37 52 58 60
47 42 38 52 54 49 38 28 31 31 22 24 28 35 36 35 40 41 40 32 32 35 29 37 57 74 86 96 82 78 71 64 43 38 83 99 90 90 89 63 58 42 31 26 24 23 25 26 27
51 47 56 60 55 44 39 33 29 31 26 22 24 29 36 37 36 38 35 31 38 38 32 41 58 73 81 92 83 79 73 64 45 31 69 95 92 89 86 78 71 43 32 31 33 34 36 38 35
57 52 70 65 53 43 39 31 31 25 22 20 27 36 34 40 38 38 37 38 45 45 34 42 57 67 79 89 81 76 71 65 47 30 63 83 90 89 95 88 77 46 39 40 41 42 44 46 49
70 72 72 61 57 47 38 30 31 30 24 22 25 35 32 37 39 40 44 47 50 52 52 47 47 60 73 88 86 75 74 68 46 32 49 66 83 91 86 86 65 45 46 45 46 47 51 54 59
70 71 75 72 58 55 34 32 27 20 21 25 26 37 32 32 30 41 47 49 54 56 57 57 54 51 58 74 81 74 75 69 51 42 38 51 67 78 84 60 49 57 56 51 53 60 61 68 71
74 86 90 72 66 52 38 36 31 32 30 26 27 28 27 29 30 35 45 49 52 56 58 59 58 52 47 60 72 75 75 69 60 51 40 44 42 44 57 65 71 68 70 69 69 71 73 78 78
88 97 78 63 57 48 42 41 39 36 38 34 29 28 25 26 29 31 38 38 40 42 47 52 56 55 46 50 60 68 69 77 72 56 53 53 49 56 72 72 70 71 74 78 80 84 87 90 90
90 89 70 66 60 60 55 50 46 42 48 36 35 34 38 35 32 34 34 35 32 35 41 40 50 54 54 45 51 61 68 83 71 65 68 72 71 72 70 71 73 76 78 84 87 92 94 95 91
80 77 78 72 65 66 67 61 63 53 45 39 34 41 35 35 38 36 36 34 35 36 40 42 43 53 57 56 57 63 77 80 77 78 79 82 81 83 81 80 79 80 86 94 90 90 91 89 85
77 77 67 64 61 62 65 70 72 66 59 52 42 44 40 36 32 32 32 31 31 31 30 33 39 46 56 62 66 75 83 84 85 87 88 89 88 89 88 87 84 86 92 90 88 88 85 83 81
71 72 69 64 57 57 64 62 62 58 54 51 49 46 41 38 34 32 31 29 29 30 29 30 30 36 53 62 68 75 85 87 87 86 89 88 88 85 85 89 94 95 91 88 88 86 80 80 78
74 85 76 70 62 62 53 65 66 51 52 53 50 48 45 37 34 33 31 31 29 27 29 29 28 26 46 59 68 77 88 85 87 86 86 82 80 82 86 89 90 89 88 85 83 82 81 56 38
79 82 95 62 64 57 55 70 53 40 47 55 46 48 42 36 36 33 32 32 30 29 28 28 26 28 35 60 68 79 90 82 87 83 79 83 88 88 85 86 88 90 89 85 67 39 36 34 33
73 94 94 76 57 59 71 70 53 49 46 52 54 52 46 38 37 34 33 32 32 30 29 26 27 30 35 63 72 81 88 79 86 84 84 89 92 92 88 85 91 88 48 36 36 34 33 32 29
86 98 84 86 64 67 73 74 60 53 51 53 50 50 50 47 41 36 34 34 32 30 29 25 30 34 45 67 75 82 87 80 87 87 91 96 97 88 88 84 71 36 37 36 38 36 28 24 24
89 94 94 80 66 78 77 72 62 55 59 64 58 54 50 44 44 40 37 35 32 32 31 29 31 39 52 69 75 84 88 94 91 94 99 97 89 84 88 40 37 38 40 41 31 23 23 24 23
91 90 78 65 68 72 69 67 55 51 52 52 53 53 53 43 40 42 41 35 32 34 32 31 32 49 61 73 76 81 93 94 94 97 96 85 88 86 37 38 40 44 44 33 25 23 24 23 21
88 93 80 73 68 65 75 64 38 34 36 42 41 42 46 49 42 38 38 38 34 35 32 32 34 49 64 73 76 86 96 95 96 94 82 78 69 38 38 41 45 47 39 30 24 24 23 21 17
85 70 76 79 87 90 71 75 44 41 40 35 35 45 48 47 44 40 38 36 35 36 37 38 41 48 54 69 78 77 83 81 79 81 78 76 43 38 42 46 48 45 38 28 24 23 20 16 13
75 66 77 79 91 95 82 92 59 48 44 42 61 46 43 41 34 37 39 35 36 39 40 45 48 57 58 70 81 85 88 79 68 70 71 49 38 43 47 49 48 43 36 27 24 21 16 13 15
64 74 79 87 96 97 70 84 56 41 36 40 48 40 38 42 43 37 37 38 38 45 51 55 56 59 61 75 88 80 86 79 76 72 49 38 43 47 50 50 48 42 32 25 21 16 13 14 17
76 97 97 97 95 84 62 76 58 40 37 43 45 45 41 38 39 43 41 40 43 50 59 66 71 75 84 85 83 84 85 86 82 57 38 42 47 50 52 51 46 37 28 21 15 13 14 17 18
86 80 91 92 93 82 61 82 53 44 36 32 30 33 33 44 47 46 43 42 44 50 62 73 85 91 90 88 90 91 87 72 43 39 43 48 50 53 54 50 42 32 22 15 14 15 18 18 15
94 96 69 91 74 94 72 75 51 40 35 38 52 39 32 30 38 46 49 46 51 57 68 80 92 96 95 94 86 72 52 39 40 43 49 52 54 56 53 44 34 23 17 14 15 19 18 15 14
81 67 97 98 95 93 84 79 62 45 40 31 26 33 39 44 47 52 57 61 66 71 78 92 95 94 90 75 59 45 41 44 45 50 52 55 58 55 47 37 27 18 15 17 21 19 16 15 14
97 98 100 79 87 92 89 54 50 52 57 62 56 26 31 32 47 58 67 74 75 84 91 95 96 91 77 56 47 43 44 46 51 53 56 59 57 50 42 31 19 15 18 22 20 16 16 14 14
62 90 80 97 92 87 88 57 44 66 63 64 67 62 59 65 74 80 81 87 87 87 92 93 88 80 61 54 46 45 46 51 54 57 60 59 54 48 35 20 16 20 23 20 18 16 15 14 16

GFSSGP_850_rhum_042.txt.gz
RH
36 33 30 31 27 25 24 18 19 22 21 23 23 23 22 23 25 28 38 42 38 43 83 86 92 90 81 76 58 60 54 48 47 53 70 76 88 91 89 70 61 40 42 89 94 98 100 100 97
38 34 33 28 27 28 22 18 19 22 21 23 24 24 24 23 35 49 50 36 41 67 86 96 87 85 88 72 51 44 38 37 37 40 47 55 73 64 48 49 48 47 40 56 92 91 93 93 89
39 34 30 26 26 27 24 20 17 22 23 22 24 28 25 26 44 44 47 35 32 49 85 94 88 93 84 70 57 51 44 34 29 30 55 50 45 51 45 49 46 37 33 33 74 94 93 97 93
53 40 33 29 27 24 22 19 21 22 21 23 24 24 32 37 44 47 36 43 43 86 85 42 80 89 80 72 61 54 48 37 28 55 83 74 63 77 55 56 40 32 31 29 31 46 65 69 62
50 38 30 32 25 21 22 21 22 22 21 20 20 22 27 41 37 39 41 34 75 85 89 44 82 86 79 74 70 64 56 46 31 52 78 87 87 83 79 80 54 37 36 36 33 33 34 36 37
41 35 32 31 24 21 23 22 23 21 21 20 19 19 23 34 37 37 37 36 55 48 72 76 84 81 90 79 76 69 60 50 32 43 69 88 87 86 84 85 68 41 43 44 45 47 46 49 52
34 34 28 25 22 22 23 24 24 20 20 19 22 20 25 38 47 39 38 41 43 57 52 82 90 84 83 86 84 74 67 59 39 37 69 89 86 87 88 82 69 44 43 45 47 50 53 56 63
42 32 29 31 27 26 22 26 24 23 19 22 25 17 20 41 44 43 41 51 52 49 54 82 96 98 92 90 92 84 73 67 48 32 50 79 86 87 80 81 58 51 51 49 54 56 62 66 68
64 37 32 31 29 26 30 27 25 28 26 29 26 27 36 30 44 50 68 73 72 59 58 74 93 97 100 99 91 94 83 77 60 43 38 52 92 88 88 73 51 56 61 62 66 68 70 74 79
48 44 33 27 30 31 30 32 29 32 28 26 28 32 39 32 49 63 64 65 73 64 62 68 87 97 99 98 92 88 91 84 87 59 42 89 85 81 69 58 63 60 70 73 75 77 82 88 100
50 49 33 45 42 50 45 44 41 33 31 29 27 29 38 43 52 58 54 51 60 71 78 60 81 63 89 95 97 87 90 99 98 84 73 88 55 42 68 76 73 72 74 90 83 90 96 89 87
57 49 47 48 54 56 51 48 47 39 30 33 40 40 41 40 40 46 54 52 54 63 68 51 62 52 61 66 79 98 96 93 97 78 60 70 76 68 90 89 74 76 84 93 94 91 85 83 81
53 43 49 49 58 52 48 46 44 43 42 44 45 47 44 41 41 41 40 49 54 56 60 57 49 49 48 58 64 79 95 92 96 78 62 89 90 94 90 84 90 86 87 91 85 84 84 83 82
53 56 54 54 51 49 50 43 41 40 39 37 38 41 42 40 38 40 41 40 39 48 49 50 34 42 42 48 55 61 95 98 98 92 73 81 81 81 79 79 78 81 84 85 83 84 82 80 75
61 60 45 44 44 46 48 47 43 38 36 36 36 34 35 34 35 39 40 40 38 36 37 32 34 35 33 37 53 64 97 100 98 92 81 80 76 76 77 79 77 78 83 85 82 81 81 47 34
54 53 53 41 47 44 47 41 27 34 36 37 36 34 33 34 33 34 38 41 41 36 33 32 32 32 34 36 53 76 97 98 99 84 79 75 76 76 80 83 78 80 82 86 83 50 35 34 30
51 45 52 49 46 46 49 45 34 47 40 39 34 36 38 38 35 33 33 36 41 38 36 32 32 32 32 38 85 96 98 98 98 88 80 76 79 81 86 91 84 84 84 75 36 35 36 27 20
44 55 49 49 40 44 46 45 36 39 39 37 37 37 39 40 42 44 40 39 39 38 34 34 33 32 32 38 89 96 100 100 99 88 84 84 84 86 91 92 86 86 65 36 38 38 33 25 18
53 54 58 46 42 45 41 37 33 30 32 31 32 33 33 33 37 41 43 46 47 36 29 35 33 32 32 36 89 96 98 91 86 89 91 94 95 90 96 91 86 67 36 39 42 38 32 24 19
56 58 54 45 41 45 42 40 32 29 30 30 29 25 23 24 25 30 38 40 45 46 39 36 34 33 32 42 63 94 88 84 80 88 90 100 97 95 92 88 69 37 39 43 42 39 32 24 18
60 60 54 53 45 44 48 43 29 22 22 24 26 26 26 25 24 24 24 33 43 48 46 39 35 33 34 46 79 74 72 88 96 100 100 100 100 97 85 70 40 39 42 45 44 39 30 22 16
63 48 56 59 61 65 49 52 31 25 24 22 21 22 24 26 28 28 25 25 37 46 43 42 36 34 39 40 46 53 66 86 100 100 100 100 100 91 69 45 39 42 45 46 44 38 28 19 14
61 51 54 57 66 70 59 83 32 23 28 23 20 20 21 23 25 27 30 29 32 40 39 41 40 38 40 40 47 75 93 100 100 100 99 100 94 66 51 43 43 46 48 48 43 36 23 16 14
55 61 61 60 78 85 45 62 33 17 15 18 18 20 20 21 26 29 30 36 37 45 36 39 41 40 43 44 59 87 96 93 99 98 99 98 71 58 45 44 46 48 49 47 40 29 18 15 15
67 84 77 80 89 64 35 44 39 20 24 24 22 19 21 23 27 32 37 43 47 51 44 40 43 44 48 52 72 87 94 97 99 98 97 89 70 48 45 46 49 50 49 44 34 21 16 16 16
85 66 64 69 54 33 42 53 27 21 26 26 24 21 28 30 31 28 38 51 55 57 43 44 48 51 55 61 75 90 98 99 99 94 89 67 51 48 46 49 51 51 46 36 24 17 18 18 16
64 85 56 73 57 65 38 28 21 19 20 20 22 32 35 35 34 36 33 50 57 70 48 47 54 58 64 72 82 90 98 99 97 86 68 64 46 46 50 52 51 47 38 26 18 19 19 18 16
60 50 80 88 81 65 41 36 33 26 25 24 24 33 35 42 47 40 34 52 66 75 60 69 68 70 72 77 81 87 93 97 80 74 58 46 48 51 53 52 48 39 27 20 20 20 20 18 17
80 89 77 75 75 68 67 42 23 24 22 22 37 38 41 55 58 46 41 60 78 88 90 83 81 78 77 82 84 93 91 80 82 60 47 48 52 54 53 50 40 29 21 21 22 22 21 20 19
44 58 62 92 84 87 81 62 27 28 27 40 37 34 44 65 74 69 66 80 92 98 94 85 84 82 83 89 93 89 87 83 56 46 49 53 55 54 51 43 31 23 23 25 25 24 23 22 19

GFSSGP_850_rhum_045.txt.gz
RH
38 48 38 32 27 24 23 18 12 16 15 15 19 20 20 21 22 30 54 66 63 77 82 80 82 88 88 68 73 79 78 74 71 72 78 79 92 86 83 57 42 30 39 71 95 92 78 99 100
38 43 35 26 29 27 22 14 16 13 16 19 19 20 21 21 26 48 55 58 66 74 93 97 86 86 78 68 56 49 44 41 42 42 59 82 87 79 43 38 38 35 32 67 96 94 100 100 94
40 41 30 26 27 26 20 16 14 15 19 19 19 22 21 23 34 40 55 58 66 75 86 88 84 86 83 64 48 47 41 36 36 39 44 51 49 36 42 46 38 30 29 38 92 89 89 92 86
48 36 28 30 27 20 16 15 13 17 17 20 21 21 24 34 35 42 60 62 65 72 78 81 82 92 91 68 60 58 48 33 37 66 60 56 76 63 58 50 36 33 29 28 73 85 87 78 86
47 31 30 27 23 17 14 15 15 17 16 18 19 20 24 36 45 53 62 62 64 69 83 76 81 88 81 71 64 60 54 36 39 72 85 78 78 67 78 70 45 34 35 28 27 29 33 30 28
34 28 30 28 21 16 13 16 18 18 17 17 18 19 22 41 45 55 64 61 64 69 83 86 80 85 78 74 73 69 58 43 30 62 80 89 89 92 74 76 54 38 39 40 41 43 44 45 48
35 30 28 22 18 16 14 18 18 18 17 16 17 18 21 31 48 58 63 62 68 72 78 96 85 82 86 81 78 75 67 53 32 54 76 84 86 89 83 85 63 42 42 43 44 46 49 52 59
36 28 28 23 19 18 13 17 19 18 17 18 19 18 17 37 55 60 62 66 71 76 76 82 95 95 85 82 84 80 74 65 43 43 64 78 86 84 88 84 59 46 45 46 53 53 59 63 65
48 38 32 26 19 17 17 20 21 20 20 20 18 20 31 40 56 59 62 65 68 74 74 74 84 97 99 97 89 90 81 74 55 36 46 64 91 94 80 77 56 48 55 58 62 65 68 69 80
46 38 29 17 15 18 20 22 21 24 23 20 21 22 31 39 48 53 56 58 64 72 74 73 79 86 94 94 94 93 92 73 67 48 36 63 84 90 99 69 52 57 62 66 70 73 77 83 90
42 40 24 22 33 31 27 24 28 26 28 20 19 21 30 36 40 47 48 47 54 64 72 74 78 80 84 99 94 96 99 99 98 88 84 83 81 70 57 68 61 67 69 88 85 88 95 86 79
43 34 30 29 36 42 40 35 30 28 28 23 23 29 32 33 32 39 44 42 41 50 64 75 76 81 82 95 98 97 96 97 97 93 84 84 77 76 82 85 90 90 90 91 97 92 83 83 81
44 39 32 36 40 42 44 40 36 34 33 31 30 32 36 37 33 32 34 41 41 44 55 66 73 78 93 94 91 85 94 97 94 95 86 82 84 85 85 86 87 88 90 89 85 82 82 81 76
39 40 38 38 38 40 42 38 36 33 31 31 32 32 33 36 35 33 34 35 39 42 47 56 68 74 84 92 64 82 89 94 90 95 91 86 87 86 85 90 81 76 77 81 82 81 81 76 67
50 52 40 36 37 37 39 42 39 34 32 30 28 28 27 28 31 32 33 35 36 34 43 46 56 67 76 88 66 64 91 93 95 97 92 91 89 77 73 72 72 71 77 81 82 80 78 59 33
49 43 45 30 33 32 37 42 22 26 27 28 27 26 26 26 25 27 30 33 36 36 34 35 38 56 68 79 91 57 94 87 94 94 94 89 76 74 74 73 76 76 79 80 81 71 37 35 30
42 43 38 31 29 34 40 40 24 30 32 27 26 26 26 26 26 25 27 29 33 36 38 38 40 38 49 71 86 94 88 85 88 95 99 83 74 73 73 77 80 82 81 81 64 34 38 33 26
39 42 36 33 30 35 37 36 28 28 30 30 31 30 29 27 29 29 27 26 28 32 35 35 40 42 37 57 79 84 80 83 87 98 96 99 77 78 79 82 87 83 84 72 35 39 38 34 27
43 42 40 33 29 34 34 32 27 23 23 24 25 25 25 25 28 29 32 34 33 32 35 38 38 42 48 58 72 79 80 84 96 96 100 89 89 81 86 88 89 84 82 36 37 40 39 35 27
45 47 42 34 30 37 35 33 27 25 23 23 23 23 23 22 23 24 26 32 35 36 40 41 39 43 46 58 63 76 82 86 94 96 99 94 87 88 92 96 87 84 41 37 41 42 40 37 27
49 48 44 42 35 34 37 37 25 20 22 23 23 23 23 23 21 19 19 24 32 36 38 42 41 46 49 60 75 83 86 89 100 100 99 93 88 91 99 96 87 59 38 40 43 44 41 34 26
54 37 42 46 52 54 40 56 31 22 19 19 18 19 20 21 21 22 20 19 20 31 38 42 44 50 60 71 76 74 57 70 82 100 100 100 99 99 100 92 70 41 41 43 46 46 42 32 20
52 45 48 49 57 66 53 63 34 18 16 15 15 16 17 18 19 20 21 24 23 22 33 46 48 56 70 69 79 64 75 82 87 100 99 100 99 99 97 75 50 42 43 46 47 46 40 28 18
49 53 55 55 63 87 47 46 32 16 12 13 11 15 17 18 18 20 22 24 26 27 30 47 56 65 77 81 62 58 88 77 80 99 100 100 99 98 76 55 45 44 46 48 48 45 35 22 16
59 68 78 85 89 65 26 31 31 16 16 16 16 16 16 17 19 20 23 26 28 30 31 50 65 71 80 63 71 76 96 77 85 100 99 99 99 92 64 50 44 46 48 49 47 38 25 18 16
65 66 64 68 49 37 27 41 25 14 17 19 19 20 18 19 23 29 29 26 31 36 39 53 72 73 71 70 85 94 94 85 93 100 98 98 94 71 70 46 46 48 50 49 42 29 20 18 18
68 89 53 70 53 60 35 21 16 15 16 16 17 19 21 24 29 36 38 33 33 43 47 58 76 74 72 81 91 93 89 93 98 100 98 95 77 58 46 46 48 50 49 43 32 22 19 20 20
51 43 79 87 81 60 32 29 28 22 20 19 20 20 23 28 34 41 37 36 30 44 51 69 74 77 81 88 87 85 88 98 92 96 90 80 70 58 48 49 50 50 44 35 25 21 21 22 21
67 73 66 52 61 59 57 37 20 24 22 22 21 20 28 31 38 49 41 36 36 50 62 72 76 80 84 82 78 78 92 93 94 87 70 62 60 48 50 50 50 45 37 27 22 23 24 24 24
43 56 59 85 65 70 71 58 26 25 24 24 24 28 30 29 45 58 52 48 54 63 75 78 79 82 77 72 74 84 96 92 85 62 70 60 49 51 50 49 46 38 30 25 24 26 27 27 27

GFSSGP_850_rhum_048.txt.gz
RH
35 46 42 35 47 41 39 30 15 15 15 12 16 19 22 20 33 61 53 60 57 53 48 72 70 86 85 68 67 75 76 76 76 78 81 83 80 80 73 44 30 24 30 68 98 71 62 99 95
37 37 37 33 47 46 34 22 20 13 16 18 18 18 20 24 38 46 58 63 76 56 58 68 75 79 69 51 58 62 64 57 52 55 64 90 88 80 46 27 25 26 30 79 88 83 90 99 95
38 41 38 45 43 43 34 20 17 13 17 18 18 17 18 30 38 50 54 64 74 75 71 59 58 64 63 45 38 33 33 35 35 38 74 80 77 32 34 29 24 22 23 68 95 84 74 77 78
51 45 35 40 38 30 27 20 14 18 16 18 18 22 24 35 36 46 52 64 72 84 94 69 77 73 65 47 42 42 37 29 34 42 42 47 38 42 42 30 24 22 22 33 81 77 79 70 68
49 43 43 38 33 27 20 15 15 17 16 18 19 22 31 37 40 49 48 63 69 78 86 84 76 70 66 56 50 46 37 27 45 40 48 63 59 66 65 49 33 32 24 24 50 52 53 46 31
41 36 45 45 33 22 18 14 16 18 17 16 17 18 34 40 48 57 60 62 67 72 82 84 78 74 64 59 58 53 42 28 48 54 68 84 83 76 72 64 39 35 35 35 34 34 36 38 40
45 42 42 34 30 22 18 13 18 19 18 18 16 18 29 40 48 59 60 61 66 71 81 67 67 76 65 58 56 58 50 34 35 59 79 85 86 90 80 76 47 38 39 40 40 42 43 46 53
40 42 44 34 30 26 16 13 16 18 19 17 18 19 30 50 52 60 60 61 68 72 79 76 70 76 75 62 64 60 56 47 28 47 62 81 86 86 85 82 50 40 40 40 45 46 52 58 62
38 50 49 40 31 25 15 17 18 19 19 18 18 18 30 49 57 59 61 66 70 74 76 85 82 91 84 78 70 69 64 57 42 34 48 70 80 83 88 76 48 43 46 48 53 57 62 74 85
49 62 53 32 23 25 23 19 20 22 20 20 20 19 27 33 54 58 60 64 68 74 74 77 85 86 96 97 86 84 77 64 55 39 39 64 92 91 82 85 62 52 54 59 63 70 82 90 85
46 59 37 27 22 32 34 31 23 26 29 23 21 19 24 33 39 51 54 56 63 70 73 72 78 84 83 93 91 92 95 89 69 67 43 66 86 91 91 77 54 60 62 78 82 93 90 83 80
49 39 38 36 31 37 40 34 36 27 27 26 25 24 27 31 35 41 46 47 52 60 69 72 75 80 86 85 93 95 97 98 96 93 83 80 82 72 65 72 84 76 83 90 92 90 88 80 78
42 37 35 33 32 35 40 42 44 39 32 29 28 29 30 33 33 32 36 42 41 50 58 70 74 78 78 83 83 90 87 91 96 95 86 83 79 66 82 86 84 88 90 86 84 81 79 77 74
38 39 39 38 35 36 38 39 39 35 34 34 34 31 30 32 35 35 33 33 40 40 52 61 69 75 79 89 92 86 85 88 92 91 90 80 79 79 86 84 87 85 81 80 83 80 79 69 55
49 56 48 44 41 40 37 46 44 37 36 33 30 30 30 31 32 34 35 33 34 39 42 51 62 72 77 78 81 88 91 89 92 90 93 82 85 87 86 84 78 75 72 77 80 82 78 54 32
56 56 68 37 36 35 39 54 35 30 33 34 32 30 28 27 27 28 31 33 34 35 36 44 52 63 73 82 71 61 90 93 85 93 93 84 90 88 79 72 72 74 76 74 78 74 48 33 35
53 58 55 43 34 32 39 47 34 28 28 31 28 28 27 26 26 26 26 28 30 33 36 34 43 50 64 74 78 65 58 94 82 90 90 88 91 82 73 69 73 79 76 78 78 55 34 37 36
50 56 45 40 39 39 44 44 34 28 27 30 31 30 26 26 26 25 25 25 26 29 35 36 37 37 43 68 77 73 66 83 80 83 82 87 89 78 73 74 80 79 79 80 73 34 38 39 37
43 45 50 36 30 35 38 37 32 27 26 26 26 26 27 29 29 27 26 27 25 26 29 36 37 38 37 50 72 81 72 94 77 79 81 91 88 80 74 79 82 85 82 81 39 36 40 41 38
43 51 52 40 31 36 40 40 33 29 27 24 24 24 23 24 25 25 26 29 30 30 28 28 35 39 38 38 53 76 80 77 77 79 86 96 98 86 83 84 86 88 82 68 35 40 42 43 39
52 55 50 47 40 39 43 46 37 27 27 27 26 24 23 22 23 23 23 24 26 31 33 33 32 37 42 40 52 78 82 76 82 90 86 94 99 88 88 92 93 89 83 50 39 42 44 44 39
58 42 43 47 54 68 49 81 41 30 27 24 22 22 23 23 22 23 23 22 21 23 30 35 37 38 39 43 58 70 74 74 80 76 84 93 100 97 99 100 99 87 73 39 40 44 46 44 37
51 46 48 51 62 71 58 78 55 26 26 19 20 19 18 18 19 20 21 21 22 22 24 28 33 40 41 47 62 70 74 71 61 74 89 98 98 98 98 99 98 82 49 40 44 46 47 44 34
49 52 56 58 68 90 66 65 56 28 22 19 17 15 16 16 17 18 19 20 22 23 22 25 33 40 43 55 68 78 61 62 68 83 100 99 99 100 100 98 91 63 43 42 46 48 47 40 28
55 59 91 98 99 91 35 57 48 26 21 21 19 16 17 16 16 18 21 25 24 23 26 24 29 42 47 63 80 86 71 67 62 66 84 97 98 100 96 85 63 48 44 45 48 48 44 33 23
69 71 94 85 86 68 45 55 35 22 18 19 17 18 18 19 19 20 28 33 33 34 28 28 26 51 55 75 84 88 92 72 63 63 83 97 99 96 87 74 55 46 45 48 48 46 38 28 20
68 86 56 76 61 84 52 28 21 17 18 18 19 19 19 19 21 26 33 38 34 35 31 32 32 59 66 82 87 87 91 80 76 72 100 100 99 92 81 57 48 46 48 49 47 39 31 23 20
58 49 84 94 94 85 53 40 36 26 28 24 23 21 21 21 25 30 39 42 39 36 33 38 41 64 75 82 89 91 94 94 83 93 100 100 98 82 64 58 46 48 50 47 41 32 24 22 22
72 78 68 67 80 90 86 52 29 32 32 34 32 26 25 27 30 32 43 36 43 35 41 45 52 72 79 88 89 93 94 92 90 98 100 99 84 66 53 54 54 48 47 43 35 26 23 24 26
55 62 66 89 82 85 97 71 32 33 29 30 33 30 28 28 31 38 43 42 51 46 45 51 66 72 82 88 91 94 90 88 97 98 94 77 62 57 53 48 49 45 44 38 29 25 25 27 28

GFSSGP_850_rhum_051.txt.gz
RH
36 33 37 42 48 57 53 45 30 24 16 19 18 20 22 27 34 54 52 56 58 48 70 76 85 67 63 68 64 71 76 77 90 90 88 76 75 73 62 31 29 25 30 74 71 32 84 94 89
36 34 41 39 58 60 55 35 34 23 20 18 16 16 20 45 44 60 59 62 59 56 69 68 73 61 49 50 57 65 64 61 64 84 82 89 77 67 31 23 22 21 46 82 79 49 90 79 70
37 38 47 56 59 60 53 30 24 18 17 17 18 18 20 42 44 55 53 65 66 55 64 64 68 55 37 34 38 38 34 31 31 40 74 79 70 26 26 23 21 22 54 86 85 84 75 70 70
39 47 46 51 55 43 36 28 24 20 17 17 19 24 36 40 45 55 58 63 74 63 63 65 60 45 31 26 24 20 18 18 21 29 63 58 29 30 26 22 21 19 26 74 80 83 79 80 76
56 53 60 57 47 36 32 26 22 19 18 18 19 23 40 46 43 52 64 68 70 72 70 64 59 52 37 32 32 26 18 18 23 21 31 34 39 41 32 25 24 19 19 38 54 50 50 48 33
46 49 69 66 49 32 28 21 20 19 18 18 18 20 39 46 42 50 66 66 68 74 86 76 65 51 46 39 37 32 22 23 24 29 46 42 50 50 43 30 28 28 27 24 26 28 30 33 40
52 59 63 49 48 37 30 21 21 21 19 19 18 20 43 52 53 51 66 66 69 77 82 83 66 46 53 46 42 36 28 23 34 35 64 90 88 74 62 41 31 33 35 36 36 38 42 48 52
45 60 56 52 43 39 25 19 15 19 22 17 18 22 53 51 58 56 63 67 68 75 78 74 77 64 56 52 50 44 36 26 35 51 64 77 85 89 80 60 37 37 37 39 41 44 49 54 57
44 65 72 58 48 37 24 27 20 19 18 18 19 30 47 55 61 61 61 70 69 73 76 72 59 66 62 55 58 56 48 38 27 39 60 73 78 79 83 71 39 39 40 43 50 54 60 72 78
54 72 61 42 38 34 30 34 29 21 20 20 19 31 46 44 59 61 62 70 72 72 76 76 76 64 69 74 66 61 57 50 37 30 45 66 77 84 80 68 47 43 47 52 58 65 73 80 86
50 70 50 44 36 34 39 36 33 29 29 22 21 22 30 27 46 60 62 65 68 71 74 75 81 83 70 62 78 78 73 64 56 39 37 64 82 93 82 72 52 53 55 64 72 72 77 74 81
62 49 46 42 39 38 42 41 43 40 32 31 26 25 27 36 28 50 58 63 67 70 72 68 77 83 83 78 76 84 85 88 72 58 37 69 73 90 84 73 58 62 70 84 84 84 87 82 79
52 48 43 41 38 38 36 43 46 43 40 32 29 30 30 32 36 40 48 53 58 63 67 73 69 78 82 83 84 90 95 95 91 71 72 73 73 80 68 66 76 73 84 88 85 87 82 77 72
48 44 46 44 44 43 41 40 39 40 33 34 34 30 33 33 33 32 35 40 43 53 60 66 72 72 78 83 84 82 84 86 91 92 88 81 80 74 58 74 84 78 85 86 90 86 79 76 65
51 60 58 52 48 49 39 50 50 37 37 38 37 33 32 33 33 33 32 34 35 39 46 60 69 74 77 78 85 82 81 85 89 92 89 90 78 70 80 84 82 83 88 85 83 84 80 66 43
59 60 79 51 45 47 45 57 43 34 38 39 36 34 32 31 30 31 32 32 34 34 35 54 63 66 74 78 79 79 81 85 89 85 89 90 78 82 87 86 82 86 80 75 78 79 79 50 34
60 75 77 63 39 44 50 53 41 36 35 37 34 36 34 31 30 29 28 31 32 34 35 36 58 59 61 74 78 82 85 86 83 88 88 90 84 87 88 86 82 76 73 74 77 73 46 34 37
67 75 56 54 42 38 46 53 44 33 33 33 30 32 33 32 29 27 27 27 27 30 33 34 37 54 57 61 69 77 77 82 86 90 86 86 86 88 91 87 78 74 75 76 77 68 33 38 39
60 53 54 48 38 38 48 50 41 34 31 31 30 28 27 29 30 29 27 26 26 26 26 28 35 38 56 64 70 74 73 78 75 85 79 80 82 84 84 82 76 75 78 79 79 57 34 39 41
62 58 58 48 37 41 47 46 38 35 33 30 30 29 26 26 26 28 29 29 28 26 25 26 29 36 44 61 60 67 66 71 68 75 76 78 77 82 82 80 76 78 81 81 77 48 36 41 42
56 58 58 55 48 45 53 52 45 36 34 31 29 28 27 25 24 24 24 26 26 27 28 28 29 34 38 38 42 52 63 72 69 73 75 80 79 87 83 90 82 83 86 84 78 40 38 43 44
64 51 50 54 62 76 53 83 63 39 29 28 30 30 28 26 24 23 23 23 23 24 25 28 30 32 33 40 39 45 56 61 72 70 77 79 79 82 85 96 90 91 92 85 67 40 40 45 45
60 51 57 59 68 76 70 77 60 48 31 26 20 19 23 22 22 23 23 23 23 23 22 22 24 29 33 41 42 40 51 57 61 69 68 74 75 93 99 98 94 95 94 79 51 39 43 46 46
51 55 58 64 76 97 76 71 57 39 29 20 23 18 19 20 19 20 21 22 22 22 22 22 22 27 28 35 43 45 44 55 62 67 60 69 75 84 100 98 96 97 93 64 46 43 46 47 44
56 70 93 89 95 92 60 76 64 40 31 27 26 18 17 17 17 18 18 20 22 22 22 22 24 24 32 34 39 49 52 51 53 58 57 62 86 100 94 95 98 97 82 52 46 45 48 46 39
72 71 92 94 98 82 56 78 48 29 28 20 19 17 17 17 18 19 20 24 28 29 29 29 28 25 26 38 38 44 55 67 63 64 59 76 93 99 94 94 97 85 62 50 45 47 47 42 33
74 87 65 82 74 92 69 46 30 25 28 23 22 21 22 20 19 22 27 28 32 32 26 24 32 30 28 33 49 51 60 74 71 72 90 100 100 100 96 97 91 66 57 48 47 48 44 36 28
62 58 86 94 88 92 71 54 41 34 38 35 36 32 29 29 27 30 35 35 34 32 23 28 34 33 31 51 59 58 67 82 77 89 95 100 100 97 95 91 70 61 48 45 45 43 37 31 25
74 84 71 76 88 92 96 65 37 34 34 34 36 36 36 35 32 31 30 32 34 30 30 36 35 34 41 65 69 70 77 86 90 91 86 98 97 97 88 80 77 58 45 43 48 38 30 26 24
66 73 65 91 76 94 94 83 40 35 36 41 39 49 48 47 44 32 38 34 30 29 29 48 46 43 56 66 76 81 90 88 91 95 94 99 99 92 86 60 52 54 60 48 57 67 38 26 27

GFSSGP_850_rhum_054.txt.gz
RH
41 36 36 37 48 60 60 53 36 34 23 20 20 20 24 34 36 44 53 53 62 62 62 73 89 88 84 75 70 72 69 66 65 70 70 67 66 58 50 30 32 44 96 60 39 43 88 94 71
42 37 41 42 61 62 59 42 36 32 22 20 18 18 24 48 52 53 57 58 59 54 57 64 75 60 54 45 55 58 56 55 75 83 77 55 58 53 28 17 16 20 75 85 34 79 90 77 74
43 40 44 57 68 66 56 38 30 21 20 19 18 20 31 43 38 44 51 57 62 55 51 63 72 61 55 43 48 49 46 44 62 78 59 54 54 24 18 18 19 28 88 86 55 89 82 79 75
43 45 51 61 68 51 45 32 27 25 19 18 20 28 41 42 38 42 51 54 60 62 53 61 75 69 43 38 38 42 32 31 36 47 46 54 28 20 18 18 20 31 70 80 88 87 85 81 78
56 56 68 65 58 47 39 32 28 28 22 19 20 27 42 51 48 43 45 52 62 57 59 65 74 59 36 29 21 20 16 16 20 25 56 45 24 23 20 20 19 22 60 72 82 83 79 77 42
53 59 79 64 52 38 33 27 26 24 21 20 21 35 43 51 49 50 56 56 63 52 58 66 66 54 34 28 22 16 15 18 18 20 30 26 35 33 25 24 23 20 29 54 48 36 30 26 34
58 67 77 64 56 49 36 27 24 24 22 21 18 33 54 57 58 51 63 71 68 64 56 61 59 56 42 36 31 21 16 18 19 20 25 32 43 44 35 28 29 31 30 30 31 35 39 46 52
47 64 64 58 55 48 31 24 21 21 22 18 18 48 56 54 66 64 69 71 75 77 76 78 74 56 50 42 40 31 20 20 23 27 37 48 60 66 55 34 33 35 37 38 40 44 49 53 59
50 72 82 60 53 41 29 33 25 21 21 19 22 27 22 44 60 67 72 73 78 85 84 81 82 72 51 49 49 44 33 25 28 32 48 69 73 82 74 50 35 37 38 43 47 52 55 60 64
59 80 69 50 44 40 34 35 32 27 22 21 27 34 44 55 62 62 66 70 76 80 82 78 76 70 58 52 52 51 46 34 29 36 53 63 69 74 80 64 38 42 45 51 54 58 68 72 72
59 76 53 48 44 41 42 41 39 35 30 26 32 52 55 56 60 62 62 62 63 73 79 78 76 68 59 58 54 57 53 48 36 33 42 54 59 72 75 67 49 46 52 59 59 64 72 76 83
65 53 45 45 42 45 44 38 44 41 33 32 37 34 45 60 63 61 63 62 65 69 70 73 74 73 74 68 63 60 60 57 53 37 38 47 55 64 66 66 51 51 57 68 74 80 82 77 75
58 52 47 44 44 46 40 45 47 44 34 30 35 37 34 31 50 59 58 61 60 61 63 66 72 74 73 76 71 68 77 79 71 59 39 45 53 59 68 72 58 59 65 76 77 82 85 84 79
50 48 46 45 47 47 46 45 41 41 36 32 32 32 33 33 31 40 55 63 65 66 64 63 68 71 76 76 78 76 76 75 80 70 55 41 52 65 69 72 65 74 74 82 85 88 88 82 77
53 58 56 53 48 50 44 51 55 39 36 36 31 29 28 29 31 31 34 36 42 53 67 66 68 70 73 75 80 78 81 85 82 83 71 68 63 65 72 58 68 75 75 81 88 90 88 82 73
61 64 73 53 46 44 47 58 46 37 37 38 35 30 28 24 26 31 30 34 34 35 39 60 62 68 69 75 74 70 79 83 82 86 89 77 76 72 76 68 75 80 83 86 88 84 83 80 66
65 77 73 64 46 47 57 60 44 36 39 37 35 35 32 29 26 24 30 31 33 33 33 36 62 62 66 69 74 66 68 79 79 87 88 84 86 86 76 76 83 85 84 85 79 77 75 71 39
79 78 67 64 43 51 55 64 50 38 40 39 36 34 31 30 29 27 24 29 31 32 32 32 34 56 61 65 67 71 66 75 79 86 89 84 86 88 82 85 88 87 85 84 76 76 75 47 37
62 62 63 52 42 43 47 48 47 40 37 35 35 31 28 28 29 31 29 29 27 27 30 29 30 31 53 62 68 69 69 73 78 75 84 88 85 85 84 89 90 90 87 77 76 76 77 35 39
70 75 75 54 43 43 50 53 43 38 36 33 30 30 30 27 26 28 29 30 28 27 27 26 27 27 29 51 57 64 62 69 61 62 76 87 84 80 74 82 91 92 87 80 80 79 75 35 39
67 65 61 59 52 47 56 42 39 38 34 32 31 31 30 27 24 22 24 27 29 29 29 28 26 26 26 31 50 59 65 64 66 64 68 74 83 79 73 79 83 88 85 80 81 82 72 36 40
68 51 53 57 62 74 57 72 60 44 44 33 30 29 29 29 26 24 23 22 23 23 25 28 27 30 28 31 43 50 57 58 59 60 60 70 72 79 67 75 86 90 86 85 88 84 58 40 42
62 53 56 59 71 74 69 77 56 44 36 26 20 21 18 17 23 22 23 24 24 23 23 23 23 24 28 32 37 51 54 56 52 54 59 62 71 74 65 64 81 87 93 90 90 84 62 44 43
53 60 68 75 80 93 71 73 57 42 32 21 22 20 19 18 22 22 21 23 23 23 24 24 23 23 23 24 33 33 46 53 54 54 54 61 64 70 66 65 79 96 95 91 89 82 56 45 45
60 72 93 90 97 80 65 82 65 45 38 33 32 24 21 22 21 20 21 22 22 23 22 22 22 22 23 25 31 36 33 41 48 50 52 55 61 65 64 66 84 99 90 92 93 66 50 46 45
67 71 89 79 98 88 63 78 48 37 30 24 24 27 28 30 29 26 24 22 20 20 20 21 21 21 21 22 23 29 44 40 46 51 53 54 57 59 62 84 100 99 91 94 87 61 50 45 42
73 84 65 87 78 94 73 54 32 35 37 34 36 36 37 38 41 37 30 37 33 27 26 26 27 27 25 24 24 26 32 48 48 49 55 62 62 65 81 100 100 98 93 93 75 58 53 44 40
62 63 86 92 75 84 70 66 48 34 36 36 45 42 43 46 42 42 44 38 35 35 33 30 27 23 20 26 31 29 28 46 53 54 56 63 68 88 100 100 100 96 90 78 59 53 45 41 33
80 84 81 78 87 91 96 58 43 36 36 44 47 42 55 56 52 52 51 47 40 36 32 29 27 23 30 33 34 32 37 67 65 60 63 74 86 99 100 100 98 83 70 64 54 56 45 30 29
67 75 71 90 73 95 88 74 43 44 42 44 41 50 58 60 54 54 52 40 45 39 32 30 27 30 42 34 36 38 77 90 76 66 74 100 100 100 100 96 81 70 66 69 56 41 50 78 54

GFSSGP_850_rhum_057.txt.gz
RH
42 42 35 41 49 64 63 51 39 36 28 20 21 25 26 30 34 41 53 54 58 60 89 90 88 92 88 84 84 88 92 98 71 65 68 69 71 67 58 48 32 52 70 100 59 72 77 87 77
42 42 37 43 58 62 60 47 39 33 24 21 21 27 34 43 49 46 52 58 59 58 68 86 90 86 93 87 84 86 70 63 61 62 58 54 52 49 38 22 20 41 87 76 53 65 86 89 79
44 42 47 59 72 62 51 41 35 24 22 22 21 24 31 40 42 40 44 50 64 59 48 60 77 90 84 66 66 65 65 58 59 56 49 51 47 33 16 16 18 94 96 89 80 98 84 78 80
42 45 49 67 70 55 45 33 30 32 22 21 22 39 41 42 41 43 43 52 62 55 47 46 57 59 58 51 51 57 71 95 97 70 37 50 38 18 18 18 20 61 94 80 99 85 85 82 77
45 57 75 74 65 54 44 35 31 33 29 24 22 31 41 42 43 48 50 51 57 60 51 49 43 51 50 50 50 46 49 51 71 34 38 37 18 18 17 18 20 44 64 78 79 81 81 80 59
61 63 81 71 61 44 39 32 29 27 25 22 22 43 46 47 42 46 55 59 66 58 55 54 56 51 40 41 39 30 20 20 23 21 32 25 19 18 18 18 18 27 54 67 76 74 64 38 36
64 80 83 64 49 46 39 29 29 28 27 22 20 49 49 47 48 48 59 66 74 64 51 53 46 46 34 27 24 20 17 18 19 17 21 20 26 24 21 23 23 23 35 49 36 33 35 44 51
53 67 69 67 59 49 33 28 25 23 24 20 20 54 66 43 50 56 70 74 75 72 62 52 41 42 34 29 30 22 17 20 19 18 18 25 32 32 26 26 30 32 33 34 38 41 50 55 56
52 76 86 59 58 46 33 34 29 27 25 22 22 22 31 32 52 62 78 82 79 78 71 65 66 61 38 38 36 32 21 20 22 24 28 31 40 44 38 32 33 35 38 41 46 50 55 59 61
61 83 73 54 47 42 37 38 38 33 31 23 29 32 41 46 56 52 58 70 80 79 77 80 79 77 65 46 42 40 31 26 28 31 41 51 63 67 58 44 36 37 40 45 49 55 64 71 71
64 77 56 51 44 46 46 44 39 40 38 29 34 61 67 65 64 58 53 47 37 62 74 77 78 80 75 59 44 43 41 32 32 38 50 56 61 69 74 63 38 42 46 48 52 59 71 79 79
68 59 52 48 42 46 46 42 45 40 38 32 36 48 64 73 68 65 58 53 58 62 65 71 74 76 74 66 54 45 44 43 36 32 40 51 56 63 72 68 54 46 51 56 60 67 74 78 81
65 58 52 47 44 48 46 46 50 47 35 35 34 35 35 42 67 69 64 65 68 65 66 68 70 73 72 70 66 61 54 52 47 41 36 43 50 58 70 65 62 53 59 65 73 77 78 82 82
55 54 50 46 45 47 48 48 43 42 36 37 38 36 34 34 32 39 68 69 67 68 71 67 67 71 74 73 75 72 66 63 66 62 50 39 41 54 69 71 69 60 65 74 82 82 85 87 83
54 60 57 56 51 52 47 54 61 42 38 37 34 36 34 32 31 32 36 53 70 69 69 67 66 69 73 73 76 76 73 69 71 70 72 59 42 50 65 72 73 71 76 84 86 88 90 90 85
66 64 78 54 55 49 45 58 44 36 36 38 37 34 32 30 29 28 30 32 37 48 58 65 70 72 72 74 70 72 67 76 77 75 72 66 55 50 66 72 66 71 83 83 86 87 88 89 85
67 88 82 64 50 50 58 63 45 38 38 40 36 33 29 26 23 25 24 28 30 33 34 36 46 70 70 70 70 67 68 75 79 80 68 70 70 69 73 74 72 76 83 82 86 87 86 85 82
87 76 69 67 44 52 63 71 55 43 44 45 41 38 35 32 30 27 25 25 24 29 32 32 32 34 42 66 70 68 72 73 78 79 76 71 77 74 82 79 79 82 85 85 87 88 84 79 69
67 68 66 56 44 45 50 54 45 39 40 43 39 37 36 33 30 31 30 29 29 24 29 32 32 30 30 43 74 70 69 71 76 79 75 74 81 79 79 86 81 84 85 86 88 88 80 78 66
71 75 74 60 49 46 53 57 45 39 37 34 32 32 32 31 27 26 27 28 29 30 26 28 29 29 29 29 45 64 66 67 65 69 74 73 72 77 77 78 80 83 85 91 92 88 78 78 63
76 77 67 62 53 51 61 51 43 34 34 32 32 30 31 30 28 24 23 22 25 29 30 28 27 27 28 28 29 45 62 66 66 65 67 66 68 70 78 71 72 80 86 89 92 86 80 80 68
78 53 56 58 62 75 59 69 57 41 42 39 31 25 24 24 24 25 26 25 21 21 26 28 29 28 28 29 31 32 34 53 64 64 61 64 64 67 67 67 63 72 83 92 98 89 83 83 67
64 54 59 63 75 69 70 77 54 41 34 28 28 25 24 25 20 20 22 22 24 25 23 22 23 24 26 26 33 32 34 47 60 60 62 59 59 63 62 63 64 73 86 96 100 92 89 86 61
57 60 70 80 76 89 68 66 49 40 32 29 31 27 30 30 27 24 22 20 20 22 23 23 24 24 23 23 24 27 36 42 57 61 65 62 60 60 61 63 62 63 72 90 100 94 89 83 68
60 69 89 80 94 77 71 76 61 45 42 37 37 37 38 39 37 33 25 25 24 24 22 22 22 24 24 24 24 25 31 41 41 43 57 61 61 56 57 60 62 67 74 92 100 95 90 77 74
65 66 83 66 95 85 69 84 54 38 34 30 40 41 37 38 40 40 37 31 30 28 26 24 22 22 22 23 23 23 25 26 33 41 41 52 60 57 55 59 63 65 98 100 99 87 89 83 58
76 83 64 88 80 94 74 57 33 34 39 44 44 42 44 46 48 44 45 44 40 34 32 30 27 24 22 21 21 23 24 24 26 37 44 51 55 60 60 59 64 84 100 99 94 84 74 69 61
61 64 83 93 77 75 60 66 42 37 40 47 51 44 46 53 56 52 46 51 49 46 41 36 33 30 28 27 23 20 20 28 29 30 47 53 54 53 60 63 78 99 100 97 88 74 69 59 53
82 89 84 80 85 84 89 42 47 37 41 48 49 44 50 58 61 58 51 50 57 48 38 43 35 30 29 27 26 25 24 32 32 34 42 71 58 58 62 72 94 100 99 91 83 76 62 56 43
68 74 74 86 78 97 91 73 42 45 47 41 43 47 59 66 66 64 56 57 66 64 56 49 40 33 32 28 27 37 37 38 38 48 73 83 90 85 90 100 100 100 90 80 74 57 52 60 69

GFSSGP_850_rhum_060.txt.gz
RH
40 40 37 39 50 64 61 49 42 35 29 22 24 25 29 27 37 44 47 53 42 41 72 84 87 80 76 78 78 83 86 96 99 78 80 84 81 75 74 63 48 54 61 84 75 85 72 71 73
41 42 38 44 59 61 58 49 41 37 26 22 23 29 33 37 47 45 54 47 51 45 72 81 81 82 82 86 87 87 98 99 98 77 71 71 70 60 48 31 26 48 88 77 63 74 93 83 78
43 43 42 62 71 63 52 40 40 29 24 25 22 24 26 37 42 43 44 41 47 50 51 74 83 87 92 92 90 90 97 100 99 92 68 54 46 42 17 14 20 96 80 40 53 91 95 80 81
47 46 48 68 71 59 40 33 34 35 24 24 24 31 43 44 41 41 45 49 49 57 56 77 87 81 92 90 88 97 98 98 96 93 59 45 34 14 14 15 28 98 83 83 98 99 85 84 79
47 51 76 78 71 57 47 37 34 34 32 28 23 26 37 48 43 42 49 54 53 58 58 69 81 83 79 90 73 91 95 97 97 82 45 36 19 16 15 16 20 64 76 99 97 86 86 83 77
63 60 81 75 68 48 43 36 34 30 28 24 24 32 41 52 46 44 48 58 67 58 60 66 81 64 58 60 78 90 70 69 86 42 34 31 17 17 16 16 19 39 66 77 84 82 83 77 31
72 86 82 63 53 47 41 33 31 30 28 26 21 41 38 50 43 48 53 62 70 71 61 62 56 43 46 37 42 41 27 31 32 23 30 29 21 19 19 18 18 28 44 57 61 57 40 33 46
56 74 79 72 58 50 33 28 26 26 25 24 22 34 35 41 39 54 59 66 74 74 69 59 56 44 31 25 27 23 19 20 21 19 28 24 27 24 22 24 24 26 33 35 31 34 43 50 52
57 78 87 66 60 45 35 34 31 29 28 26 23 24 32 37 49 58 69 75 79 73 66 62 55 40 32 23 24 24 20 19 21 20 20 26 33 32 26 28 32 35 35 36 39 46 53 57 59
64 85 75 54 48 43 39 39 39 35 35 28 25 42 34 41 53 45 56 60 70 69 66 61 54 58 54 33 29 28 25 20 22 22 26 30 40 49 42 32 35 38 41 43 49 57 60 62 64
67 77 54 52 45 45 47 46 41 42 39 30 32 54 60 64 68 69 65 57 57 70 71 67 71 76 74 62 43 33 32 24 23 26 32 40 56 69 69 55 38 40 42 48 53 59 66 71 70
71 63 54 44 46 47 48 44 46 42 38 33 35 39 67 83 81 58 59 60 59 57 64 70 73 77 78 75 66 47 41 34 28 29 38 47 54 64 73 68 42 44 47 52 60 68 78 78 78
71 61 55 48 47 49 48 49 49 46 38 37 36 37 38 53 82 74 69 73 67 60 61 65 69 70 71 69 73 62 52 45 40 34 36 42 49 57 62 71 58 49 50 55 63 71 78 80 79
60 58 55 52 50 48 50 50 47 43 37 38 36 33 34 36 36 53 77 78 73 61 62 62 66 71 69 68 73 68 64 59 52 48 43 38 42 49 58 69 65 63 55 62 71 80 82 85 86
59 65 59 57 53 53 50 60 65 42 40 39 37 34 32 32 34 33 34 50 71 68 66 64 66 69 70 70 66 67 70 72 67 61 58 55 44 42 51 67 70 70 63 67 77 83 86 89 89
70 64 82 59 58 52 46 59 45 37 41 39 35 35 35 31 29 29 29 30 33 55 71 70 73 72 72 70 68 69 67 69 76 71 76 77 74 59 47 62 75 80 78 78 84 88 90 90 90
74 93 87 69 56 52 60 65 45 42 44 43 37 31 34 33 30 27 26 24 27 29 38 56 68 69 71 75 74 71 70 69 72 74 75 81 78 72 50 57 72 80 74 82 85 87 90 90 88
81 72 78 76 50 55 65 73 56 42 45 49 40 36 36 36 32 24 26 27 25 25 26 33 35 36 38 53 71 71 69 71 72 67 72 72 78 79 70 61 72 76 68 80 87 88 90 88 86
74 74 73 60 47 47 54 58 50 40 40 42 36 35 34 34 30 30 30 28 29 29 25 26 30 33 33 35 44 58 66 67 67 65 68 65 76 76 75 73 76 76 72 75 85 88 91 89 85
64 73 73 60 52 48 56 60 48 41 41 36 34 31 32 31 30 28 27 27 28 29 29 29 26 29 32 32 31 32 36 58 59 63 63 64 69 68 65 70 75 76 77 78 87 87 88 89 82
79 78 72 66 54 54 62 54 45 34 35 33 32 32 31 29 28 28 28 24 24 25 26 29 31 29 30 31 30 31 36 47 66 63 63 64 64 68 65 65 65 64 78 77 82 90 92 91 83
100 64 59 59 64 77 59 74 56 42 37 36 35 28 31 30 26 22 24 26 27 24 21 22 29 31 30 30 31 31 30 32 35 41 50 59 60 60 63 66 63 61 74 80 82 90 94 97 87
70 56 61 64 75 68 66 73 50 38 33 32 39 43 46 42 38 30 28 25 25 26 25 23 23 27 28 27 28 29 33 38 42 40 53 57 59 60 60 60 61 61 68 79 87 88 96 98 92
61 64 72 77 73 86 65 63 42 39 37 39 37 46 48 44 37 32 28 28 26 25 25 26 25 24 24 24 26 26 26 31 37 40 48 60 57 60 63 63 62 62 62 66 73 82 100 97 95
58 69 87 74 89 78 72 76 58 46 44 40 39 48 49 50 42 37 30 26 26 28 28 26 24 24 24 24 24 24 24 24 25 34 46 61 65 62 63 63 60 61 62 66 71 86 100 98 96
69 65 81 61 88 73 71 84 52 41 38 41 43 47 48 52 54 48 44 38 32 28 28 31 31 28 27 26 26 25 25 26 27 30 34 43 43 55 58 66 68 62 63 64 82 98 100 100 94
72 86 62 87 80 92 75 60 38 38 41 46 41 46 50 58 59 57 51 48 48 49 37 33 32 32 31 30 28 27 26 25 24 24 25 32 44 49 56 57 63 68 66 71 99 100 100 96 82
62 65 80 90 81 71 54 58 37 41 43 47 49 47 50 62 64 63 59 53 54 60 58 45 41 36 34 33 30 29 26 24 23 22 23 26 31 51 59 57 60 65 78 98 100 100 98 80 66
79 89 82 78 85 78 78 37 44 44 46 46 50 44 52 68 69 68 68 62 61 63 64 59 46 43 43 35 30 29 28 28 27 28 32 34 34 50 76 80 90 94 99 100 100 95 80 60 53
66 76 72 85 83 97 92 62 39 45 46 43 43 42 54 72 74 74 74 77 78 76 71 68 61 54 44 37 34 32 32 36 46 47 47 56 59 70 98 100 100 100 100 99 92 78 58 59 71

GFSSGP_850_rhum_063.txt.gz
RH
41 38 38 36 42 47 48 40 39 34 30 23 24 26 28 31 38 37 44 50 39 38 55 86 84 81 79 80 78 84 89 94 99 86 86 88 89 88 84 74 62 56 61 62 82 85 76 72 67
43 41 39 41 47 48 42 42 39 35 27 24 24 26 38 34 45 45 53 54 48 44 66 88 85 79 77 80 82 82 84 95 96 94 78 82 80 71 58 43 34 36 73 65 82 93 89 75 75
46 44 38 52 54 47 42 36 34 31 26 26 24 26 28 39 48 49 51 45 53 48 50 85 86 74 76 82 80 84 96 98 98 85 56 52 57 46 32 19 31 47 74 60 84 90 98 76 76
53 47 46 54 62 51 34 31 35 33 27 26 25 23 32 44 47 52 51 51 54 47 54 78 76 72 82 94 85 85 90 98 97 93 71 46 39 23 17 20 95 72 45 58 78 95 93 80 80
54 47 62 68 57 51 44 37 37 34 32 29 24 23 24 42 46 50 52 54 58 58 62 75 81 83 86 94 90 98 99 96 98 86 54 41 26 18 19 23 93 87 70 92 96 91 78 86 79
58 57 66 63 60 49 44 36 36 35 31 26 25 27 32 46 47 45 50 52 61 61 64 75 90 80 87 82 93 98 96 98 100 74 61 43 20 18 18 19 28 58 74 99 92 84 84 81 58
66 68 61 59 47 46 42 36 35 33 30 26 22 30 30 44 49 48 51 56 58 62 61 67 71 72 62 63 97 99 98 97 100 78 57 43 22 20 19 19 31 49 64 80 81 77 76 52 32
57 61 72 63 48 46 34 32 27 30 27 23 23 26 26 40 52 54 59 60 61 62 61 61 62 50 48 36 40 61 57 70 88 84 44 43 25 23 22 20 25 43 53 59 56 44 33 35 46
59 70 69 57 56 42 36 34 30 27 25 26 23 24 30 40 52 60 65 66 65 67 66 63 62 54 45 33 34 34 31 30 32 58 28 36 29 26 26 26 26 31 43 39 34 37 45 50 54
62 72 66 52 48 42 38 35 36 35 36 30 25 27 28 32 57 57 61 50 57 66 70 66 65 56 45 35 27 28 26 24 23 24 25 29 34 35 30 32 35 35 35 38 42 48 52 56 61
68 68 55 53 43 41 46 45 41 41 41 32 30 45 52 52 88 76 76 70 60 70 70 72 68 59 58 50 34 32 31 27 22 25 25 27 36 46 43 32 35 37 40 42 46 50 57 62 66
73 65 54 45 49 50 52 46 46 43 36 35 38 38 52 78 98 88 73 74 59 67 68 67 66 65 71 72 63 48 37 35 27 24 26 30 35 50 62 50 40 39 40 46 51 54 61 70 71
71 62 56 49 48 50 49 50 47 45 39 38 38 37 38 47 87 90 75 80 78 68 70 68 68 71 73 73 73 68 55 45 38 31 29 34 40 50 60 71 64 41 45 50 55 59 66 71 72
63 61 56 54 50 50 52 52 50 44 39 36 36 34 34 35 39 63 79 82 74 69 72 68 66 72 77 75 73 72 66 57 50 45 39 36 38 45 58 66 75 56 48 54 60 64 69 76 78
60 70 64 54 55 52 51 56 61 42 40 38 38 35 34 33 35 36 42 58 67 71 74 70 69 68 74 73 62 71 69 69 66 61 55 50 44 42 49 60 72 71 65 56 62 69 77 80 85
71 67 81 60 53 52 46 52 44 40 40 43 38 36 31 29 29 33 34 32 32 41 59 68 70 72 71 62 59 58 58 68 70 72 71 66 61 56 48 55 70 73 74 60 64 72 83 84 88
80 89 84 66 58 54 48 58 47 46 44 44 41 39 37 32 26 23 26 29 29 28 30 41 62 68 68 66 62 58 58 62 64 69 73 74 74 78 74 59 59 79 86 78 72 75 84 88 90
86 82 83 68 55 61 66 67 56 46 41 42 39 36 34 35 30 23 26 27 27 27 26 28 34 50 65 67 67 65 65 60 66 66 70 69 74 84 87 81 56 72 89 86 80 84 88 89 94
68 67 76 69 50 49 57 58 48 41 40 41 36 32 30 32 31 31 31 30 30 29 28 27 27 31 40 46 50 53 56 58 58 58 59 60 64 70 70 75 67 58 78 80 72 83 89 92 93
64 71 74 60 51 50 56 54 45 40 41 38 37 36 36 35 32 29 28 29 29 29 30 30 29 28 30 34 35 36 41 54 52 55 56 56 59 63 66 68 75 69 72 79 74 74 86 90 94
72 70 74 65 54 54 58 52 43 34 34 34 34 33 34 32 26 21 20 22 24 25 27 28 29 29 30 30 32 35 40 46 41 38 46 51 52 58 61 64 66 73 76 78 77 72 82 88 90
94 66 63 60 66 75 58 62 51 39 38 42 47 47 44 41 35 34 29 28 28 27 25 24 26 29 30 31 33 34 35 38 33 33 33 42 43 58 63 64 62 63 68 77 79 78 78 89 94
94 81 60 64 72 66 63 63 45 36 38 42 44 53 55 49 42 37 34 31 28 28 28 27 24 25 29 32 31 32 33 33 33 35 33 33 37 45 61 63 61 60 63 63 70 80 83 88 97
65 62 66 71 69 78 63 60 39 39 38 41 43 52 58 53 45 40 37 33 33 33 30 30 28 26 26 27 28 28 29 29 32 37 37 37 40 42 60 64 66 65 60 60 62 68 87 89 97
60 70 82 75 84 66 72 74 47 41 43 40 45 51 59 59 51 42 36 33 32 29 30 30 30 29 28 27 27 28 31 36 33 32 33 41 43 47 47 59 63 64 66 65 62 68 82 93 99
67 68 78 58 71 62 70 76 45 42 41 40 45 52 59 63 62 57 51 46 42 37 34 29 29 31 30 29 30 31 31 31 32 33 35 40 44 45 53 55 57 60 66 69 68 68 84 100 100
68 77 58 85 80 81 66 56 39 42 45 45 45 47 52 68 68 66 62 59 55 53 51 45 36 31 32 32 31 30 29 29 28 28 29 28 30 35 44 59 62 66 65 70 70 78 88 100 100
61 63 77 86 75 65 49 50 42 49 45 44 47 48 53 73 72 70 69 70 64 62 60 59 56 48 38 35 34 33 31 30 28 26 26 26 26 27 32 41 59 67 83 95 100 100 100 100 100
75 84 78 73 75 61 56 33 41 46 46 47 47 46 60 74 74 71 69 73 76 75 74 70 67 62 50 46 44 40 34 31 30 29 28 28 28 30 42 48 54 87 99 100 100 100 100 100 99
63 74 68 82 81 90 85 48 36 43 50 50 45 45 59 76 74 70 71 74 77 82 75 70 72 69 59 51 46 40 35 32 31 31 29 34 41 47 62 89 100 99 100 100 100 100 100 94 71

GFSSGP_850_rhum_066.txt.gz
RH
42 39 38 38 31 28 26 24 21 24 23 20 21 21 19 23 22 28 44 64 67 77 82 70 70 59 64 74 69 72 80 87 97 99 91 91 90 90 86 81 71 64 64 71 86 87 67 68 61
45 44 43 36 31 33 26 20 25 19 20 22 23 23 22 23 40 64 66 52 75 89 92 84 70 57 83 75 78 86 88 91 97 98 95 90 87 84 72 59 42 35 56 74 91 91 73 67 72
48 47 38 32 32 31 25 22 18 20 23 23 21 23 24 27 51 65 60 54 87 93 95 98 79 76 82 81 81 86 86 93 98 99 93 70 73 64 50 35 28 48 62 59 92 94 88 73 73
60 50 41 38 36 28 22 19 21 22 24 23 22 19 26 42 56 69 50 66 88 91 95 82 80 71 78 82 85 85 90 98 98 92 57 38 51 45 18 20 54 58 52 76 93 96 93 78 76
62 44 40 43 34 27 25 20 23 22 23 21 20 18 20 55 45 51 54 69 92 91 96 86 83 72 84 94 85 88 95 97 92 87 60 35 27 17 18 36 82 61 78 81 93 96 86 76 78
51 42 41 43 35 27 28 25 23 23 22 21 18 19 23 39 53 56 66 86 94 96 99 97 82 78 87 93 88 97 98 98 97 93 70 34 19 18 20 51 98 85 90 84 95 92 74 80 70
43 42 40 31 31 30 29 27 25 20 20 20 19 18 25 56 49 53 90 94 96 91 98 100 90 87 92 97 91 98 99 92 98 94 73 44 22 20 19 22 49 80 97 99 94 86 81 77 33
41 38 37 31 33 32 25 30 25 23 21 21 22 17 19 61 51 53 60 94 98 67 95 100 100 95 94 83 80 97 98 97 98 97 90 52 26 23 21 22 42 64 85 90 87 77 68 35 42
51 37 33 35 36 28 27 27 26 25 20 22 22 25 40 40 49 58 71 97 85 74 96 96 96 94 93 93 94 94 93 77 98 99 86 61 38 25 24 25 34 45 62 70 65 41 32 42 48
41 37 28 22 26 29 31 25 24 25 22 23 23 31 36 46 41 64 78 86 76 74 76 98 97 95 93 90 90 94 94 83 85 73 61 87 76 67 53 27 29 38 48 45 34 36 46 53 63
45 40 28 41 38 34 34 30 31 25 28 21 22 32 64 46 55 92 91 83 80 72 67 66 77 97 95 92 84 90 92 90 90 93 92 92 81 43 33 35 35 35 36 41 42 45 54 72 84
56 42 38 38 48 44 41 34 31 30 23 29 36 39 48 82 97 99 99 90 70 64 61 66 65 66 91 87 59 66 65 68 83 91 90 88 81 78 80 69 64 51 46 82 84 93 88 60 64
61 46 45 38 47 46 48 40 30 34 34 40 40 37 40 52 84 99 98 100 96 84 66 69 67 63 82 94 79 76 58 45 46 47 56 55 75 87 94 94 70 59 77 82 86 86 75 78 73
55 52 48 43 42 47 45 42 44 36 35 38 38 37 39 40 44 76 96 96 90 77 74 64 68 74 73 96 93 82 73 64 51 48 41 32 59 74 93 96 91 76 48 70 85 87 72 72 72
56 59 50 46 45 43 43 44 42 36 35 31 32 32 34 38 40 40 48 71 86 92 88 66 66 70 74 79 82 79 75 72 65 57 53 44 41 52 73 93 95 84 68 57 69 82 70 71 76
60 56 67 44 42 48 39 32 29 34 32 28 27 27 28 31 36 36 38 40 42 56 82 94 76 69 71 73 76 76 75 71 68 67 66 62 55 50 47 59 90 94 94 76 67 64 65 77 78
60 55 52 48 43 38 44 33 25 32 35 32 32 32 31 31 32 31 33 37 37 38 33 42 64 61 63 67 74 70 69 67 68 69 68 69 71 67 62 62 65 77 96 94 73 69 68 78 84
58 54 49 46 51 44 43 39 40 41 43 36 32 31 33 34 32 30 31 29 25 28 30 30 37 35 41 59 68 70 68 59 66 62 64 71 72 78 74 76 77 73 92 90 86 73 68 74 87
34 49 51 46 40 52 48 45 39 35 36 33 30 28 28 29 31 34 28 27 27 25 26 28 27 26 48 55 51 68 64 49 47 56 66 65 62 61 72 78 82 82 75 82 86 80 75 79 89
47 50 48 54 45 43 45 45 38 35 34 33 32 30 29 32 33 32 29 30 30 30 29 27 27 26 28 67 34 47 59 60 51 55 54 57 52 55 58 64 68 74 73 83 79 85 82 84 91
53 44 45 48 48 43 44 43 39 32 30 31 32 34 35 36 35 34 24 22 24 25 28 29 29 29 29 30 68 70 56 52 44 45 45 52 56 58 57 60 62 64 70 68 59 72 82 81 83
87 52 50 51 52 55 45 37 38 31 37 34 38 41 42 43 41 42 42 29 26 25 26 26 27 28 30 31 52 84 64 52 36 38 40 42 40 49 58 56 64 65 63 66 64 67 76 86 77
94 50 51 53 56 54 51 47 36 31 39 40 41 47 51 52 50 48 42 37 34 31 29 28 27 27 28 29 32 64 87 81 51 47 41 39 36 34 48 55 62 66 67 66 64 65 78 82 87
78 61 52 51 54 75 48 49 33 29 31 39 42 48 54 58 55 53 44 43 38 36 33 31 29 28 27 27 30 36 75 85 92 86 73 41 38 36 40 46 54 62 66 64 66 68 78 78 94
84 83 94 84 79 57 54 56 33 33 32 36 42 50 58 62 61 60 52 45 42 40 36 33 33 32 30 28 28 30 31 55 91 78 92 78 80 52 42 47 51 55 57 66 68 68 70 77 86
68 60 59 60 59 43 58 50 34 33 31 38 44 49 60 65 66 66 57 54 49 47 44 41 36 32 34 32 31 30 29 30 33 34 62 86 88 52 51 61 73 79 79 72 62 68 70 71 80
60 72 46 68 62 52 37 42 33 36 36 38 41 47 59 68 71 72 65 60 57 54 53 52 49 45 40 34 33 32 32 32 32 32 33 33 36 41 40 45 53 64 78 89 94 92 82 80 99
54 47 63 76 67 51 37 35 36 45 41 40 40 42 53 70 74 74 71 66 68 67 64 62 61 58 54 49 40 37 36 33 31 30 29 28 26 24 26 28 32 41 53 66 86 99 100 100 100
61 64 61 50 54 40 30 23 25 36 37 36 38 43 57 70 74 72 78 80 76 79 76 70 66 65 61 56 50 46 43 39 34 32 31 31 31 30 31 32 37 52 86 98 100 100 100 100 100
52 54 47 65 73 66 60 32 27 32 33 39 37 44 63 78 73 83 91 94 87 82 76 75 74 72 71 64 60 56 52 46 42 38 34 32 32 33 41 46 64 86 99 98 98 100 100 100 100

GFSSGP_850_rhum_069.txt.gz
RH
40 45 51 39 32 25 28 22 16 17 17 16 17 17 14 17 15 31 61 69 60 81 75 43 64 70 82 79 79 78 83 86 90 98 95 90 89 89 88 87 83 75 70 91 91 65 64 58 62
49 64 47 32 33 32 26 18 20 16 16 18 18 19 18 17 26 53 66 73 68 80 91 62 60 64 83 76 76 76 83 87 92 98 100 98 92 93 94 65 54 50 60 93 91 74 66 65 65
56 62 38 32 34 30 25 16 16 16 19 18 18 19 19 21 42 52 73 72 69 80 90 87 58 58 77 72 78 86 86 93 96 96 98 100 94 91 62 42 29 35 49 90 95 88 74 71 68
70 54 42 37 33 26 20 16 15 14 18 18 19 18 23 44 46 62 77 71 74 76 82 76 58 81 80 81 81 88 88 93 96 99 98 68 66 50 28 25 33 67 46 80 97 93 83 76 69
56 43 42 40 34 24 18 16 17 15 16 17 18 17 20 54 64 72 74 72 71 72 90 81 74 79 85 79 87 86 96 97 99 98 68 31 38 22 19 44 49 59 67 90 95 95 88 70 73
54 41 42 44 32 25 19 19 18 16 17 17 17 16 25 62 68 74 74 73 73 74 91 86 76 71 85 90 85 90 96 98 98 97 63 27 18 17 20 68 69 89 73 88 92 96 84 72 70
42 40 42 30 28 25 22 21 20 18 16 18 16 16 28 54 77 77 76 78 77 81 95 98 89 76 89 92 88 94 97 96 97 98 82 33 18 18 21 44 88 91 80 77 95 91 72 72 44
42 34 39 31 27 26 20 20 23 19 16 16 17 16 18 63 88 86 78 76 80 85 88 98 98 96 95 97 97 97 96 94 97 99 96 47 23 20 21 24 45 88 97 99 94 85 73 62 33
39 38 38 33 28 24 18 22 23 22 19 17 18 16 42 67 70 68 83 74 86 86 79 90 98 98 93 90 95 96 96 99 98 99 97 52 31 22 21 26 37 76 69 80 82 70 56 34 44
46 41 30 23 22 22 23 23 23 21 20 16 16 21 44 57 61 84 76 78 99 87 82 78 79 79 78 79 91 96 99 99 96 96 78 78 80 59 47 27 29 39 57 68 60 41 35 47 57
47 39 27 19 29 26 27 25 21 20 19 16 16 17 36 47 72 95 98 100 99 99 92 85 77 78 77 82 83 87 85 89 88 95 80 91 78 77 51 31 26 33 42 48 37 34 44 63 84
47 38 29 26 37 37 30 25 19 21 18 18 18 26 37 55 62 82 98 97 95 100 99 74 88 80 78 81 82 76 80 83 79 82 88 86 82 86 71 79 50 63 48 81 62 81 86 92 86
50 34 35 36 41 38 33 31 22 23 25 28 33 37 32 41 58 77 91 98 82 92 98 92 86 97 84 82 88 78 76 79 77 79 82 83 84 85 82 76 79 86 84 82 90 88 87 92 86
54 45 41 38 36 41 42 32 30 26 26 29 31 31 32 32 38 63 86 96 91 90 88 99 95 88 85 85 90 87 81 79 78 77 84 84 81 82 85 89 86 82 81 81 86 88 88 87 86
53 57 48 40 36 38 40 42 39 31 30 28 28 26 26 29 34 37 58 76 83 88 92 96 99 77 66 84 94 92 90 86 86 80 81 80 82 83 85 88 97 98 87 82 85 87 87 84 82
61 54 60 48 40 38 40 38 25 31 30 27 24 22 24 25 30 33 37 42 59 69 79 85 93 75 61 69 96 97 95 92 89 86 85 81 76 79 85 92 90 94 98 88 85 87 92 84 78
61 76 51 40 36 39 43 34 20 28 28 25 23 21 20 21 22 25 30 35 40 42 55 71 84 94 68 65 74 96 97 94 95 91 88 86 85 82 79 90 90 90 94 98 90 89 90 82 78
61 55 38 39 40 38 42 40 27 28 29 26 23 22 23 23 24 23 25 29 33 38 39 40 53 75 93 98 74 74 82 99 98 95 92 88 89 91 92 88 91 92 93 97 98 93 91 85 78
32 36 35 31 39 41 38 33 32 27 34 31 26 23 22 23 23 24 26 28 32 34 36 37 38 41 64 78 82 59 66 61 69 81 95 96 89 90 94 94 94 95 92 87 99 97 95 82 86
40 33 33 32 33 44 36 36 29 30 30 30 28 23 21 21 22 26 30 31 31 33 36 36 36 38 40 56 72 57 43 47 57 57 58 64 78 69 60 80 90 95 92 95 96 98 100 90 79
69 40 34 38 42 42 37 39 35 30 30 29 30 30 28 29 29 28 29 31 31 31 33 35 37 37 37 38 50 72 75 94 69 46 52 54 59 84 79 62 76 92 98 92 91 89 97 83 82
64 33 30 37 49 46 39 30 29 28 30 28 28 30 32 34 35 38 42 41 37 32 30 30 32 37 37 35 39 51 72 82 84 78 61 55 55 50 60 86 80 76 90 99 88 93 83 86 82
78 46 38 43 44 46 50 49 33 29 35 31 31 37 40 41 40 45 50 51 48 33 29 26 26 28 32 34 35 46 59 71 83 85 90 83 79 54 46 52 61 69 80 75 84 96 100 89 85
51 50 51 50 53 78 41 41 38 33 31 33 34 38 43 46 45 47 54 55 60 40 36 34 34 30 29 29 30 32 45 71 82 83 86 89 90 91 82 51 46 52 63 78 67 64 97 100 98
76 83 98 98 92 58 40 49 30 27 26 31 34 40 49 50 51 52 55 56 61 56 46 44 42 42 34 31 30 31 34 52 77 83 87 89 90 91 99 82 69 62 70 100 96 92 86 86 100
96 97 98 72 62 46 46 53 33 26 26 35 40 45 52 53 57 61 64 65 63 68 59 50 46 45 38 37 37 38 40 40 49 72 87 91 92 95 92 79 63 56 62 84 100 100 100 100 100
95 89 47 51 42 41 36 32 31 31 30 36 38 43 53 58 62 65 66 69 70 74 76 61 57 56 50 45 38 41 46 37 36 37 51 79 86 97 97 83 76 57 79 90 91 100 100 100 100
66 53 66 78 61 47 33 30 31 35 37 34 37 40 48 60 64 64 66 71 78 79 72 70 66 63 58 56 52 45 42 40 36 35 37 42 54 56 42 33 38 42 48 74 99 99 100 99 99
59 61 55 50 51 42 33 24 25 33 33 37 36 40 48 59 65 66 71 78 83 78 75 72 68 66 66 62 58 55 51 48 45 41 39 36 36 35 34 33 34 36 39 54 96 99 99 100 100
46 48 42 67 65 58 61 36 25 29 32 32 37 42 52 66 68 75 83 81 79 80 74 73 73 72 70 71 70 63 62 61 56 52 47 44 42 40 39 40 41 48 66 95 99 99 98 98 99

GFSSGP_850_rhum_072.txt.gz
RH
37 37 46 52 54 43 42 32 19 18 16 16 16 16 20 18 40 65 55 56 57 60 38 41 55 73 72 73 74 80 84 84 84 89 92 88 89 88 87 84 80 64 82 88 65 58 53 54 37
38 41 61 48 53 47 37 24 24 17 18 17 17 18 18 21 44 60 65 62 74 70 47 43 57 73 77 78 78 80 85 89 94 95 98 99 90 90 92 60 44 47 86 93 79 67 65 57 34
34 60 67 52 50 46 36 23 21 17 18 17 17 18 17 37 46 62 72 65 79 89 53 50 57 84 75 78 78 79 87 94 96 98 97 99 93 75 58 35 26 35 65 94 90 78 74 64 38
56 61 60 59 46 37 30 21 16 17 17 18 19 19 31 46 53 62 66 68 78 87 94 58 55 74 80 74 81 86 90 96 96 100 97 77 70 59 26 20 32 35 64 93 94 84 75 70 44
70 82 86 66 49 32 25 20 16 17 17 17 18 20 46 54 64 66 69 70 76 82 91 64 52 72 77 76 83 86 89 94 98 94 39 33 43 21 21 49 55 73 66 97 97 95 86 69 51
72 68 92 85 52 33 25 19 17 16 15 17 18 17 55 61 70 71 70 71 72 80 88 67 69 86 81 80 86 88 97 97 98 90 33 22 18 18 45 64 73 75 92 93 94 96 89 70 51
68 65 74 65 49 35 27 22 20 17 16 17 16 17 55 66 73 72 70 69 72 85 85 75 74 84 87 85 90 88 95 97 97 89 56 26 19 19 28 56 83 76 78 88 91 93 79 67 37
59 54 64 59 47 34 22 21 20 19 19 15 16 18 61 77 76 74 74 74 73 84 83 79 79 76 95 95 94 93 95 98 98 95 81 37 19 18 21 24 56 75 75 78 81 84 69 59 30
54 59 62 53 41 32 20 22 21 21 21 17 17 21 62 82 72 76 74 76 78 83 85 97 97 85 94 95 97 98 99 97 98 98 87 41 21 19 19 22 31 71 61 50 71 70 58 36 36
55 57 51 35 30 29 23 22 22 23 22 20 18 33 52 62 66 70 74 76 78 83 81 82 95 90 86 93 88 86 95 97 96 99 80 45 37 28 22 20 25 30 35 47 56 50 34 33 43
57 63 40 33 28 32 26 24 23 24 27 20 18 21 33 57 79 74 66 79 88 80 83 81 84 81 83 81 85 80 64 83 85 83 71 56 81 65 43 32 23 26 29 41 41 35 32 46 58
57 50 45 29 34 35 30 27 25 22 21 20 17 17 30 44 64 81 75 82 84 75 80 76 75 77 77 79 83 83 90 89 87 92 80 62 80 73 52 31 26 26 28 32 34 32 38 52 86
65 46 39 38 36 38 31 30 27 22 20 25 28 28 34 46 50 66 85 85 90 82 75 78 77 77 77 78 78 78 81 82 81 81 86 85 86 73 58 48 51 41 41 48 53 58 77 79 78
56 53 42 34 37 39 39 36 31 24 23 27 31 32 31 31 43 63 75 88 85 83 82 68 78 78 82 80 83 78 76 76 78 78 80 85 83 75 68 78 71 68 79 71 85 77 89 88 84
51 67 58 40 38 40 42 46 41 29 28 28 29 30 29 30 32 39 68 69 69 81 87 85 75 76 74 81 85 88 84 80 78 76 76 75 78 73 75 84 88 77 75 78 81 85 86 88 84
64 64 81 50 42 38 41 55 39 33 34 32 28 27 27 25 27 32 36 56 71 75 75 85 75 71 65 76 89 88 92 89 84 80 76 73 67 65 70 75 88 89 74 82 80 82 87 87 83
78 87 77 57 45 41 46 50 31 29 33 32 29 27 23 23 24 26 31 36 42 60 77 81 81 76 65 67 78 95 96 94 92 87 84 79 71 67 66 66 75 84 92 83 82 83 83 88 83
75 78 61 56 50 44 52 51 30 26 27 30 28 26 24 21 20 21 22 25 32 38 42 62 83 85 82 74 70 89 97 97 96 84 88 87 83 80 77 74 70 80 88 88 89 83 86 88 82
64 57 50 44 34 50 49 52 42 30 32 33 30 26 22 22 23 24 24 24 25 28 34 40 41 58 82 86 85 78 72 82 88 91 87 88 88 84 82 79 80 76 82 80 86 89 94 90 89
61 54 50 38 40 46 45 46 36 33 32 33 32 28 25 22 22 22 24 26 28 30 32 34 37 38 39 63 80 79 69 60 58 69 78 82 88 79 77 77 77 84 88 91 82 92 96 98 92
61 69 64 41 44 42 40 46 40 31 28 29 30 30 29 28 28 28 28 28 29 31 32 34 34 35 38 38 50 61 69 66 56 39 41 61 82 73 72 67 70 69 85 95 95 74 83 94 100
76 53 58 40 53 71 48 60 40 35 37 35 31 29 28 29 31 32 32 34 33 31 30 31 34 35 35 37 38 41 54 64 52 44 49 46 43 47 68 68 73 77 80 93 75 90 70 85 99
85 78 51 59 55 54 58 64 40 36 37 36 31 29 35 36 37 44 46 49 43 36 32 29 30 34 37 38 40 40 42 56 81 82 84 81 62 53 56 60 74 88 91 96 100 100 100 78 81
88 91 80 63 61 92 57 60 48 40 35 34 35 39 41 42 44 50 56 60 59 48 41 38 38 31 28 29 34 38 40 40 52 72 84 83 77 88 88 90 91 78 98 100 98 100 100 98 85
94 100 99 98 98 86 48 61 46 32 31 34 42 42 46 48 48 51 54 57 57 53 50 51 49 45 39 36 33 33 35 37 49 72 83 86 88 88 91 89 90 99 99 99 98 98 99 100 100
97 97 98 89 90 69 47 67 43 31 31 33 37 47 51 53 58 61 65 64 63 62 55 50 48 47 41 39 40 42 43 41 42 60 76 83 89 94 95 90 92 100 100 100 99 97 100 100 100
99 100 85 74 50 74 59 42 36 30 42 43 43 48 53 58 63 65 66 68 69 70 65 58 57 55 53 50 44 41 42 37 36 40 50 66 78 91 97 98 95 96 98 99 98 97 98 99 99
94 68 89 97 82 71 51 49 49 45 45 44 44 46 55 61 64 64 66 69 75 73 71 69 66 63 60 57 54 53 49 48 48 44 42 47 58 67 69 72 68 58 80 83 85 99 99 100 100
96 100 62 59 64 80 65 43 33 39 39 42 44 42 52 61 64 66 71 78 74 73 74 73 70 66 65 66 63 60 62 61 58 53 48 44 46 42 43 42 42 41 45 50 58 79 98 98 98
52 60 56 91 76 81 83 53 30 36 40 40 41 42 54 62 65 72 79 76 74 74 73 70 71 69 69 77 78 73 71 71 63 56 52 49 45 45 49 53 50 52 54 63 73 93 98 99 98

GFSSGP_850_rhum_075.txt.gz
RH
41 40 34 40 60 62 60 47 27 20 19 18 17 19 21 26 51 60 59 60 62 55 47 54 58 62 66 68 72 70 73 78 81 87 90 84 83 81 80 76 72 87 91 64 47 47 46 28 19
43 44 36 54 70 69 57 35 33 23 19 16 15 16 27 60 54 62 60 64 62 56 51 56 65 64 66 67 69 76 79 81 87 92 91 89 89 90 81 62 53 81 91 77 70 69 54 27 22
55 49 45 73 76 72 53 32 29 21 17 17 18 17 27 50 62 59 60 72 69 62 51 59 68 69 70 72 76 80 82 89 89 94 96 97 95 70 47 32 30 74 92 88 78 75 71 31 28
54 44 51 86 83 56 44 37 25 22 18 18 19 22 47 53 60 66 64 72 75 59 53 63 72 70 75 75 76 84 90 93 94 98 99 99 74 50 25 18 22 52 93 84 84 81 77 40 34
56 55 87 91 75 53 42 32 28 20 19 18 19 30 62 64 51 60 70 77 77 73 58 60 83 76 76 78 80 86 94 96 98 65 30 32 38 19 17 23 25 56 91 86 92 91 71 48 40
78 72 89 77 71 50 40 38 25 18 19 18 18 41 64 72 60 68 72 75 81 76 78 57 71 83 72 76 86 90 87 95 89 23 23 21 16 15 20 27 34 63 91 94 93 84 66 52 37
82 92 76 70 66 55 46 36 20 18 18 19 16 45 71 74 68 71 74 76 80 82 87 56 64 82 78 79 90 88 95 96 85 30 21 17 16 16 39 57 72 85 90 85 77 80 62 50 30
78 84 76 70 66 68 44 38 28 20 19 17 17 53 81 76 72 74 74 75 84 88 87 72 82 84 84 88 89 93 94 82 95 67 53 23 18 21 30 65 63 58 72 76 72 66 53 44 28
78 82 80 72 64 53 40 42 30 21 18 19 30 35 60 75 75 74 75 81 80 86 83 76 74 86 95 97 96 97 96 98 100 95 44 33 21 19 21 24 31 40 43 58 52 50 45 35 33
76 83 64 48 47 45 37 43 45 47 23 23 52 52 63 63 74 75 73 81 79 84 86 73 74 79 96 94 94 93 88 93 91 76 37 35 24 21 20 20 26 29 27 34 40 42 35 28 35
70 69 49 42 40 34 41 55 36 40 30 22 57 52 51 41 62 74 74 79 81 86 84 80 73 72 78 88 86 84 81 72 66 64 51 51 34 32 23 21 23 26 26 31 36 35 28 31 38
74 58 51 41 37 38 36 31 33 40 24 23 24 29 38 38 41 66 76 78 80 90 85 89 86 79 84 84 88 86 68 65 65 60 68 52 40 45 45 37 33 25 28 34 34 34 31 39 48
82 60 52 48 48 43 38 33 30 26 24 26 30 33 54 59 57 53 71 72 70 85 92 92 85 76 83 82 80 76 69 77 75 65 65 71 50 57 60 48 38 30 28 30 34 35 35 47 62
63 64 60 49 51 45 42 36 32 26 24 31 28 34 36 45 50 58 57 56 62 70 81 83 80 78 78 78 78 76 78 84 81 73 78 79 67 68 66 58 49 54 48 49 48 53 65 72 72
64 80 73 61 44 46 42 46 44 30 27 30 32 30 29 31 42 59 65 64 58 71 70 73 78 78 78 79 82 78 76 77 77 76 78 80 81 79 73 60 59 66 60 58 65 71 78 90 91
63 68 90 67 46 42 44 60 44 34 28 31 31 31 29 28 30 34 40 54 68 75 69 64 73 78 80 82 82 84 85 79 77 75 74 75 75 78 73 63 63 71 74 73 66 72 78 84 89
77 94 82 67 52 46 47 52 37 35 31 33 31 30 29 27 26 27 26 37 52 68 72 68 68 60 65 82 83 88 91 91 88 80 77 73 70 72 72 69 68 78 85 82 75 69 71 80 86
77 86 81 80 57 56 56 54 41 28 31 33 32 31 28 27 25 23 23 25 37 42 62 75 79 86 79 71 78 91 89 91 92 92 80 73 72 70 68 66 67 67 72 79 86 83 74 72 80
67 77 76 67 51 58 61 57 48 37 32 34 33 32 28 26 24 22 23 25 26 33 38 47 63 80 84 83 73 79 87 85 86 90 82 78 76 73 74 72 71 75 73 72 79 88 90 84 83
71 73 70 51 47 57 62 58 50 42 40 32 31 30 28 27 25 24 24 24 24 24 27 33 40 43 60 64 78 74 75 78 81 79 74 76 75 74 79 75 71 70 81 84 80 87 92 95 92
79 84 74 58 50 47 56 60 56 44 37 33 29 26 30 30 28 27 28 29 28 28 30 32 34 39 38 44 51 62 73 73 75 69 68 73 74 67 70 85 88 81 82 84 83 79 87 74 86
87 61 62 63 63 93 50 79 53 45 41 36 34 28 31 30 30 29 29 28 28 28 28 28 30 32 35 38 39 40 46 54 54 55 57 52 55 67 71 76 81 83 91 90 87 88 75 73 73
82 80 78 70 84 60 62 65 55 42 44 36 40 32 30 30 32 33 34 34 32 30 27 27 29 32 34 33 36 39 41 50 75 81 79 71 70 70 65 61 64 75 86 90 96 95 95 86 84
78 85 85 81 90 99 74 69 58 55 41 39 34 32 38 39 41 40 44 43 38 36 36 35 32 30 32 36 38 40 42 44 48 52 78 86 90 86 78 72 93 97 94 92 95 91 94 97 94
84 94 99 99 98 92 66 70 50 39 36 34 45 43 41 42 44 48 58 58 54 52 48 47 43 36 32 30 30 33 37 39 40 43 58 78 86 87 86 86 84 84 92 93 99 99 100 99 99
95 96 97 92 96 80 57 80 56 39 32 36 42 44 45 47 50 56 59 61 62 58 55 52 46 43 41 37 37 35 33 32 36 38 44 75 85 87 86 86 91 99 99 99 99 98 97 98 93
95 99 94 89 62 78 66 47 37 43 55 52 54 50 54 58 61 64 67 66 66 65 63 60 56 53 51 48 46 42 41 40 40 41 44 60 76 83 88 96 99 99 98 98 86 98 99 96 95
94 74 98 99 95 84 68 60 58 45 62 60 60 58 61 63 65 65 66 67 69 70 67 64 61 60 60 58 56 56 55 54 51 48 46 48 57 69 72 72 78 87 88 73 62 64 72 82 100
99 100 92 81 98 86 78 55 40 40 53 56 54 57 62 64 65 66 68 71 71 67 66 66 66 65 65 64 63 61 58 58 55 50 48 47 47 51 52 50 47 42 39 41 45 50 56 73 98
75 90 73 91 93 84 90 60 33 42 51 45 46 52 60 64 65 67 73 75 69 67 68 68 66 66 66 64 67 69 66 63 63 62 57 54 51 49 50 48 47 44 44 48 56 63 76 88 91

GFSSGP_850_rhum_078.txt.gz
RH
43 41 39 38 52 67 66 52 33 29 21 18 18 21 30 36 44 45 62 63 63 57 46 49 55 56 70 72 72 72 76 77 79 81 82 81 79 78 74 73 88 76 54 44 48 36 21 19 21
43 53 51 49 72 76 64 43 35 33 22 18 18 30 41 66 62 62 74 70 61 60 47 49 56 60 71 79 70 68 73 82 86 84 82 79 76 79 71 61 88 88 74 72 68 43 20 21 31
47 66 54 64 82 78 63 37 28 23 19 19 18 22 48 63 60 68 62 63 68 60 49 52 61 65 69 70 70 76 78 83 81 85 75 82 75 52 35 37 78 92 87 79 73 62 23 24 35
61 61 58 75 86 68 54 43 37 32 22 20 20 52 56 60 57 55 60 63 67 58 49 66 66 67 66 73 78 81 84 89 85 88 92 75 57 32 19 20 65 90 91 82 80 66 29 30 48
67 57 80 82 75 64 49 45 41 38 27 19 20 52 68 65 64 60 65 70 72 65 52 82 72 72 75 74 78 84 92 90 77 56 44 19 18 15 15 18 43 92 89 83 82 70 37 39 54
72 68 80 80 62 43 38 41 41 38 30 19 34 62 70 68 69 69 77 80 75 56 57 82 79 80 79 75 84 88 92 88 47 25 23 15 13 15 16 18 38 81 86 86 72 57 46 38 46
85 92 82 67 58 48 38 39 43 38 24 20 25 74 77 73 77 78 86 80 82 58 59 85 85 80 81 80 86 86 86 67 40 29 25 16 14 17 16 16 34 71 77 79 59 61 47 29 41
82 82 79 72 57 55 36 40 40 42 38 20 34 82 86 72 72 76 84 84 81 78 58 64 91 84 78 86 91 90 85 68 36 21 22 19 18 18 21 24 41 64 72 73 62 55 44 28 36
81 93 77 73 61 53 40 39 36 42 45 26 25 39 49 72 75 82 87 82 82 92 86 59 62 82 84 87 90 93 94 78 41 31 23 19 22 26 26 31 57 75 74 74 59 53 44 31 32
84 93 78 57 51 50 57 56 71 53 48 39 61 57 72 70 73 77 81 86 94 88 89 77 83 84 86 96 95 96 94 80 52 40 27 23 19 22 28 25 40 60 58 64 58 56 47 31 33
80 81 56 48 48 42 74 72 65 57 58 43 61 66 62 61 63 74 81 78 80 82 83 81 82 87 92 97 92 86 68 59 53 49 44 30 25 19 20 22 23 31 29 37 52 56 44 30 37
88 67 55 49 47 64 68 54 75 61 55 36 45 30 53 55 60 71 76 78 82 81 84 84 78 76 86 82 82 77 76 76 65 52 50 54 42 35 29 25 25 25 26 30 38 42 41 32 41
87 72 59 53 50 47 51 55 49 56 46 42 35 46 54 51 48 59 72 74 82 84 83 85 86 82 78 82 83 81 75 62 57 62 61 68 48 40 48 50 44 34 27 27 32 36 34 33 50
68 68 66 54 51 45 44 43 37 43 51 36 42 54 58 52 56 59 59 70 87 89 84 81 84 88 88 84 82 79 78 66 73 70 63 64 63 56 51 56 49 38 39 34 35 36 40 39 48
66 76 71 66 56 52 44 51 47 33 40 36 34 36 46 60 61 50 51 51 64 83 90 88 82 85 84 86 82 81 80 68 71 72 68 65 66 62 58 60 56 50 51 54 54 52 58 66 71
74 76 85 62 55 48 44 56 45 35 32 30 31 32 31 33 49 60 64 59 58 69 83 92 91 83 78 79 82 82 82 75 77 76 74 72 72 72 66 67 63 58 60 64 65 65 65 66 74
82 94 87 72 56 49 51 57 39 34 36 30 29 31 31 30 33 36 34 37 53 56 66 76 86 87 81 79 81 82 83 84 80 79 77 72 69 68 65 62 60 61 63 70 74 78 75 71 75
85 74 83 84 63 57 55 54 41 34 36 34 31 28 31 30 27 28 28 25 32 50 68 75 73 74 83 86 84 83 84 86 88 89 88 80 75 71 66 64 63 64 63 66 76 83 86 82 77
73 77 76 73 58 63 65 56 48 38 36 34 30 29 30 29 27 26 26 27 26 38 46 59 69 75 76 77 81 88 85 88 90 87 80 80 82 78 73 72 72 72 69 67 71 80 90 88 88
65 78 82 62 57 66 65 61 53 46 42 35 33 30 28 30 27 24 25 24 28 28 33 40 51 66 69 77 74 78 80 82 89 84 81 78 76 74 82 77 75 77 76 76 78 83 85 86 94
80 79 77 62 55 60 64 70 61 52 45 40 35 32 29 28 27 27 25 26 26 28 30 32 37 42 43 54 70 68 75 82 84 87 83 81 73 72 73 73 69 75 85 87 84 85 87 88 85
90 76 69 74 70 90 57 90 64 53 52 46 40 35 32 31 30 29 29 30 30 28 27 27 30 35 38 39 40 47 58 59 54 65 70 72 71 72 73 74 76 81 88 93 90 95 96 98 98
81 73 70 79 89 65 64 75 63 44 56 49 41 38 34 32 32 31 30 29 29 29 29 30 30 31 32 34 36 38 40 45 47 54 58 66 71 69 67 75 79 82 85 84 90 97 94 96 96
82 82 83 87 96 99 79 79 75 50 41 41 39 37 34 32 36 35 35 34 32 31 30 28 26 25 26 31 34 37 40 41 46 50 50 49 51 64 84 83 77 72 62 85 88 99 97 89 92
83 95 97 99 99 94 75 74 60 44 40 40 41 38 36 36 40 40 41 45 45 42 40 39 37 35 34 32 33 36 38 40 42 44 46 48 51 65 69 89 83 77 87 94 94 97 92 90 88
92 80 92 90 96 83 69 85 60 39 37 34 36 37 44 44 43 44 49 56 54 52 51 48 44 43 40 37 35 34 34 34 36 38 39 40 49 77 84 89 88 84 87 95 97 97 97 97 96
96 100 88 88 69 88 78 63 43 52 58 58 53 49 48 48 51 54 58 58 58 58 56 53 51 49 48 45 42 39 38 37 36 38 40 46 54 72 89 91 88 89 93 95 98 99 91 87 97
85 82 99 99 96 89 74 65 61 60 71 66 68 64 59 57 62 64 65 65 66 66 64 61 59 59 57 55 53 52 51 48 48 50 48 47 52 62 74 83 88 91 98 97 89 93 61 57 66
99 98 91 83 95 94 87 65 44 51 61 69 73 64 64 66 65 66 66 68 69 70 66 64 65 65 63 62 62 60 59 58 58 56 53 52 52 54 56 60 63 62 62 59 55 52 51 54 60
78 82 82 93 98 92 87 68 41 43 59 61 65 65 64 63 64 65 67 69 71 67 66 66 65 66 65 65 66 67 66 65 64 64 63 60 58 56 55 53 50 49 48 48 50 53 57 65 70

GFSSGP_850_rhum_081.txt.gz
RH
47 43 52 49 52 68 65 52 41 34 23 20 20 20 25 39 46 52 59 46 60 45 54 62 58 55 62 66 72 72 70 71 73 75 78 78 74 76 72 78 66 40 37 39 29 20 18 20 22
46 46 58 51 60 73 58 49 41 33 28 21 33 43 53 61 62 62 64 62 60 45 50 56 51 52 61 68 70 70 73 76 80 81 78 72 67 62 64 89 80 71 65 58 30 17 18 21 30
55 60 59 63 78 69 56 43 36 40 33 22 22 36 55 59 60 61 70 67 70 44 46 60 51 54 66 71 70 73 82 85 88 88 72 67 52 41 43 83 88 82 78 67 45 21 21 32 34
61 66 58 70 78 65 50 43 50 45 33 25 29 63 62 62 51 54 62 67 73 54 45 75 57 60 72 71 71 79 88 91 91 83 69 50 44 29 24 62 91 86 80 76 61 25 25 31 34
73 65 83 84 71 61 54 47 42 47 42 36 29 61 71 66 59 56 58 71 70 57 52 71 65 64 71 67 74 90 86 96 93 89 50 26 28 17 16 39 80 82 80 73 68 35 29 33 41
77 74 86 84 64 50 42 41 41 43 41 40 32 70 72 67 66 65 64 74 73 54 52 76 73 69 68 72 77 93 92 95 86 60 24 16 13 14 14 24 74 77 80 76 62 42 30 37 48
84 90 83 69 63 52 40 37 42 44 46 39 35 76 82 73 79 76 74 80 80 64 62 78 74 75 76 74 80 84 86 80 71 52 29 14 14 15 15 19 61 74 76 71 59 44 33 43 54
85 87 78 74 64 56 38 37 40 40 48 43 35 81 85 72 84 88 86 83 79 72 74 80 79 82 80 79 85 87 89 78 34 22 21 16 18 18 17 19 54 70 71 70 57 49 40 40 54
86 96 80 75 64 53 39 40 37 40 47 45 41 58 72 69 81 94 91 90 81 74 75 84 80 82 83 84 89 91 84 63 33 19 16 16 19 23 24 31 57 73 72 69 58 53 48 32 52
85 87 84 60 54 53 59 48 39 48 56 45 42 81 75 76 78 82 92 84 79 73 71 83 91 82 80 87 93 93 87 73 44 27 21 18 18 21 25 26 42 69 68 72 63 58 54 39 38
84 78 59 54 52 52 62 63 48 57 65 48 46 64 68 70 77 79 83 79 72 79 84 70 70 82 80 86 92 92 82 65 53 48 37 28 20 21 22 24 25 38 38 39 44 46 46 38 34
86 74 60 51 62 60 65 55 74 67 62 51 48 50 61 73 73 80 80 80 81 84 85 83 72 88 86 89 98 89 78 67 59 52 57 44 35 23 22 24 24 27 32 34 37 45 44 33 32
79 72 65 57 55 54 54 57 57 61 63 55 49 52 45 63 60 61 65 70 74 76 79 80 84 92 89 88 85 80 75 78 75 65 62 56 51 39 38 35 34 34 32 28 31 38 39 34 32
68 66 66 60 56 54 54 53 55 53 63 58 48 50 47 52 54 54 61 65 71 74 76 81 81 81 88 86 77 80 82 79 70 66 64 59 58 50 47 52 48 44 39 31 29 33 36 36 34
72 82 76 70 59 55 47 52 55 47 68 57 66 51 58 58 51 48 51 61 65 75 81 79 82 81 81 83 84 86 82 83 73 72 69 64 65 64 60 58 56 53 50 50 46 45 44 48 50
70 73 90 70 68 56 48 62 48 52 66 76 62 51 42 54 54 51 54 56 64 74 82 86 85 87 84 82 85 84 84 83 74 75 75 72 69 70 68 65 62 63 58 59 58 60 60 59 61
84 95 90 70 66 53 56 58 44 51 67 62 53 47 33 37 57 58 63 63 63 63 78 87 92 92 88 83 84 85 85 84 77 75 75 73 74 72 68 66 66 69 66 62 65 69 73 75 74
82 92 87 80 73 58 63 55 44 47 46 43 40 40 33 32 36 46 51 43 43 53 70 82 86 92 88 87 87 87 85 83 82 76 78 80 81 74 70 67 67 71 70 67 67 68 76 79 85
78 73 84 76 60 65 67 57 51 42 42 42 40 40 37 29 30 29 29 35 37 45 52 66 76 82 93 94 90 88 84 84 80 77 76 79 81 79 77 68 70 73 71 68 72 74 76 79 87
68 80 82 67 63 66 71 72 54 46 44 38 34 42 37 29 28 28 27 27 31 37 41 47 65 78 85 90 90 91 86 86 85 84 81 82 77 76 76 75 73 77 80 78 77 79 80 82 88
78 71 84 67 64 64 63 73 63 51 49 45 40 33 31 29 29 27 25 25 25 28 35 37 44 51 64 67 73 75 79 85 90 90 87 74 65 72 77 76 80 83 88 88 88 89 89 88 89
86 66 66 70 73 87 65 94 67 52 52 52 45 43 38 33 33 29 26 26 26 27 31 32 40 46 48 45 49 62 78 78 74 74 77 78 78 75 78 78 79 83 88 92 92 90 91 95 90
82 71 73 81 82 71 70 81 74 49 60 50 46 44 41 37 33 30 28 30 31 31 30 30 31 34 39 39 40 41 42 44 48 55 62 69 77 79 84 85 78 70 76 82 83 85 96 87 88
80 81 88 86 92 95 79 84 84 62 47 45 46 41 40 38 34 33 31 30 30 30 30 30 30 31 32 32 33 35 36 38 39 42 48 53 57 60 63 68 70 77 79 77 71 85 87 92 92
81 89 98 98 99 92 77 86 67 54 41 39 37 34 40 38 36 34 33 33 33 31 30 30 30 29 29 28 28 31 36 38 37 39 43 45 47 49 53 59 74 68 77 77 74 84 91 95 86
85 82 91 90 92 91 77 92 68 51 42 37 34 33 37 39 36 38 40 40 40 40 39 39 37 37 37 37 37 37 36 36 36 38 41 44 45 46 46 49 64 82 82 80 85 83 82 89 94
98 94 80 86 75 90 82 72 50 45 52 48 47 47 46 45 46 44 48 51 50 48 49 50 51 49 46 44 43 42 41 40 39 39 38 39 40 44 56 71 87 90 91 89 89 89 95 99 99
81 84 91 98 98 91 75 73 66 50 56 65 69 61 55 55 58 61 58 56 58 59 58 58 58 56 54 54 53 52 51 48 46 45 46 46 48 53 64 81 89 96 98 94 98 96 98 93 92
94 97 91 85 95 93 91 64 53 48 55 69 73 66 58 59 59 59 62 64 63 64 66 65 62 61 61 60 60 60 60 58 57 56 56 55 56 56 62 73 81 88 93 90 92 97 89 74 59
73 81 86 94 97 89 89 70 43 47 54 67 74 63 57 59 64 65 65 64 66 66 66 62 62 61 61 62 63 63 64 65 65 64 63 63 61 60 62 64 66 64 60 54 49 49 51 55 57

GFSSGP_850_rhum_084.txt.gz
RH
55 46 48 54 49 65 55 47 45 35 26 26 22 22 24 36 49 55 58 46 41 47 62 68 70 61 67 70 70 74 78 74 70 70 68 64 70 63 68 57 31 31 30 26 24 22 23 24 25
56 47 55 52 58 66 56 49 44 36 35 30 36 41 54 56 60 59 62 47 44 48 66 70 72 59 65 68 71 74 71 72 73 72 77 67 71 71 80 75 63 50 42 21 15 15 17 20 23
63 51 60 63 68 64 50 45 38 41 33 26 26 42 57 63 63 60 61 58 47 47 70 79 63 63 67 70 70 69 71 74 80 76 64 56 56 54 84 81 76 75 56 31 17 17 19 26 34
69 60 64 70 73 58 43 42 49 44 37 37 34 49 68 68 62 59 61 64 57 50 67 83 66 75 70 69 67 71 81 86 82 76 54 38 33 36 64 86 83 78 70 42 22 21 24 32 42
71 65 81 82 76 58 54 45 45 44 42 39 30 43 70 72 66 59 58 65 56 55 87 87 84 86 74 71 67 82 87 92 85 80 53 34 32 23 34 86 84 80 73 55 32 28 32 41 48
80 70 88 83 78 60 44 41 41 43 45 37 42 59 76 77 72 66 62 68 68 48 84 89 85 86 78 70 70 89 90 98 98 96 34 26 22 18 19 70 75 74 72 59 39 30 36 44 50
86 88 84 73 67 65 49 38 41 44 44 42 40 69 75 92 81 72 73 76 80 63 67 93 85 81 74 70 78 86 88 86 84 71 49 26 18 15 16 53 72 70 69 55 42 34 36 43 51
86 83 81 75 74 65 42 39 40 39 48 42 42 57 53 68 98 82 81 81 80 68 71 86 85 81 75 83 82 89 84 76 67 47 31 26 20 18 18 34 64 70 69 57 54 47 33 43 51
89 93 76 77 72 60 38 40 41 42 40 43 43 53 60 65 98 92 89 91 94 75 71 87 78 81 80 82 84 86 84 83 64 25 22 15 19 18 17 32 77 74 70 64 60 53 43 37 46
84 88 82 60 56 53 46 42 40 44 46 46 38 50 98 94 98 98 98 99 93 85 87 86 76 77 82 82 86 91 86 77 53 27 18 18 20 23 23 25 51 69 65 60 53 51 44 33 34
82 92 66 57 50 51 57 58 44 53 57 51 44 41 53 97 98 80 76 92 87 84 84 86 81 78 81 82 87 89 86 73 55 42 35 21 21 23 28 30 33 47 56 55 55 50 48 43 31
92 74 60 55 59 59 61 60 65 54 38 44 40 44 48 48 74 84 73 81 86 73 71 77 84 81 81 80 85 91 83 66 58 54 50 36 28 22 25 29 28 33 40 38 39 46 48 43 32
81 74 65 59 62 59 53 60 57 54 51 47 38 43 46 43 44 74 69 70 80 78 82 79 80 86 85 80 85 80 75 69 62 66 61 58 50 45 26 25 26 26 30 32 32 39 45 45 36
68 70 67 61 60 62 58 60 52 49 47 50 51 47 44 47 57 69 69 69 72 73 77 82 83 74 88 88 88 78 72 72 80 74 67 63 58 61 44 45 47 47 40 39 33 32 36 39 37
73 76 69 72 64 58 49 58 69 49 44 43 45 45 43 48 61 62 57 58 63 62 66 71 74 86 93 91 89 82 81 84 85 74 72 70 66 65 55 53 56 58 50 49 46 42 43 41 46
82 77 84 72 70 58 52 72 56 51 46 48 43 43 46 50 53 58 61 58 59 62 67 76 79 76 80 84 88 84 87 87 86 77 79 74 68 68 69 65 60 67 64 58 58 58 57 58 59
77 94 86 75 71 61 60 65 49 57 52 55 44 45 60 52 38 56 53 55 55 63 62 69 83 81 82 79 83 85 88 88 86 79 78 80 77 74 72 70 68 71 71 67 65 66 68 71 74
89 95 71 74 79 64 69 60 50 72 60 71 71 58 58 55 36 53 59 62 62 63 68 71 69 79 76 85 88 88 89 90 87 83 77 77 77 77 75 70 70 72 74 75 74 72 73 73 78
72 86 83 73 64 67 73 64 58 59 74 73 70 68 66 52 36 38 49 57 51 53 51 67 84 85 86 82 87 87 85 80 83 81 80 76 75 78 82 74 72 73 73 72 79 81 79 77 80
63 75 82 74 66 66 78 73 62 52 54 51 67 59 54 47 42 33 32 34 44 43 48 62 79 87 90 91 89 84 78 82 83 84 85 79 75 71 73 71 72 75 80 80 81 83 83 84 84
69 68 84 75 74 65 71 77 73 59 49 45 45 48 44 40 37 33 35 29 27 32 38 48 64 80 85 90 90 91 91 89 88 89 87 73 64 67 71 75 77 81 86 86 87 89 91 92 92
86 57 63 74 78 91 66 88 74 68 62 58 47 41 40 43 36 36 32 30 28 26 29 35 43 62 76 78 83 81 79 74 73 75 75 81 84 78 79 83 87 89 88 82 81 87 92 96 93
83 61 70 72 85 76 75 84 76 56 68 54 48 47 44 39 35 33 31 30 27 26 27 31 35 42 52 61 71 74 66 67 74 80 76 71 70 76 77 77 77 76 75 76 73 78 90 94 100
82 80 85 88 86 97 80 85 81 71 53 46 46 39 39 37 38 38 33 33 32 32 35 35 35 36 41 49 54 46 42 42 45 48 50 54 60 62 71 74 70 74 74 71 70 80 81 81 90
88 88 99 100 99 87 78 89 72 59 47 43 42 36 40 39 35 37 34 34 34 32 32 32 31 31 31 32 32 33 33 34 35 37 39 40 42 46 50 54 57 63 78 78 71 83 81 84 84
92 81 90 90 92 91 86 95 69 54 48 45 38 30 31 34 42 40 34 33 34 34 32 30 30 31 31 31 31 31 30 30 33 36 40 42 44 45 48 49 51 55 85 83 79 86 84 90 88
97 98 68 86 79 90 82 69 53 49 51 47 45 40 36 32 40 40 38 36 37 38 38 38 38 39 40 39 38 38 38 39 39 39 39 38 39 39 39 40 42 49 60 96 86 85 90 84 83
88 83 91 88 94 92 74 69 63 45 46 49 59 56 50 45 48 49 51 50 49 48 48 48 50 50 48 47 46 46 47 46 45 44 44 43 42 45 47 57 70 85 96 88 85 86 90 91 92
88 98 87 84 91 91 91 64 55 48 43 49 61 58 58 55 56 62 64 62 59 58 59 57 56 56 55 56 56 57 56 56 56 55 54 55 56 54 54 61 80 98 99 93 93 92 100 98 91
77 83 83 92 94 89 91 77 41 50 52 53 62 63 60 58 64 66 66 66 66 65 64 63 59 58 58 58 60 60 60 60 61 61 60 60 60 59 60 61 65 70 77 80 81 79 71 64 58

GFSSGP_850_rhum_087.txt.gz
RH
66 50 43 50 43 47 44 40 44 36 30 26 32 24 24 32 43 44 51 39 45 53 68 78 72 70 68 71 72 72 72 72 67 64 60 60 53 59 33 32 31 30 27 26 26 25 25 24 21
61 50 50 53 46 47 42 43 43 36 36 32 32 41 52 43 57 54 58 46 46 46 63 79 68 69 70 71 73 73 76 70 69 66 61 65 63 70 64 47 43 33 18 14 14 16 18 20 23
67 51 56 54 52 44 37 43 38 39 36 36 31 44 56 64 65 60 54 40 49 49 63 74 67 67 72 74 71 74 70 79 87 83 68 73 60 79 74 71 64 45 20 15 16 18 24 28 34
73 62 63 60 52 47 36 41 46 40 38 37 33 37 70 77 80 69 56 47 52 52 64 84 66 75 70 82 92 78 76 85 89 74 65 50 44 79 82 77 73 62 30 19 20 25 32 37 48
74 64 78 79 61 51 48 44 45 42 42 41 41 49 73 79 78 73 59 64 68 56 72 84 70 75 71 80 82 83 93 92 81 62 50 31 28 47 83 82 78 65 46 25 27 32 39 45 51
78 71 75 76 63 56 46 43 43 42 42 39 40 49 84 87 89 92 67 57 70 66 80 82 81 82 74 75 74 84 93 97 98 94 53 42 24 24 78 78 74 67 56 35 30 35 40 43 49
76 82 82 60 61 58 52 42 42 43 41 42 41 59 68 98 99 100 92 73 62 73 89 81 84 89 80 72 72 86 90 98 99 88 46 38 21 18 51 77 69 69 61 46 35 33 38 45 51
85 79 72 69 64 59 46 42 39 36 43 40 39 48 48 61 96 99 98 95 72 79 90 86 89 91 85 73 73 88 86 77 79 58 36 29 24 19 32 68 69 73 65 57 46 35 37 43 51
91 91 76 66 66 53 44 42 44 41 38 43 44 63 81 65 96 99 99 98 99 92 94 91 87 91 85 80 79 89 85 72 67 39 26 17 18 17 21 65 75 85 70 56 53 45 34 34 39
86 79 69 59 55 52 43 42 48 45 48 48 45 52 77 96 100 97 100 98 99 97 94 92 89 88 83 81 80 85 83 69 50 27 20 17 22 21 21 38 69 69 69 64 57 54 46 36 33
80 78 61 59 54 47 51 53 45 48 51 40 38 40 48 87 100 100 100 99 100 100 99 98 90 86 85 81 75 78 77 69 46 27 22 19 23 26 26 30 48 53 64 64 62 56 53 44 37
86 72 63 59 59 55 60 50 55 49 42 37 36 35 40 52 62 77 99 100 99 100 100 99 90 87 89 84 76 75 69 66 54 38 37 27 22 26 31 33 34 44 48 50 49 54 54 50 45
88 70 64 58 63 61 54 60 52 53 50 47 45 42 37 43 44 50 83 95 80 90 84 98 95 88 90 90 83 82 78 70 59 54 53 46 34 32 26 30 31 29 33 38 38 40 45 48 46
74 68 68 62 60 65 60 60 52 46 51 51 48 44 37 40 41 56 68 75 78 77 77 77 80 84 89 89 85 87 82 74 69 72 74 63 60 59 52 32 32 36 40 39 38 34 34 40 42
72 73 76 74 68 59 56 66 65 50 49 47 48 48 38 40 41 57 72 72 69 71 75 78 83 84 94 91 87 85 80 79 80 80 76 68 64 63 64 47 50 56 56 45 46 40 40 42 43
79 72 89 67 68 60 55 70 53 51 49 45 46 49 40 38 41 50 66 65 69 72 70 72 75 78 85 84 90 89 83 84 86 86 78 75 70 67 67 62 58 62 64 58 54 57 55 57 58
79 88 81 78 71 63 59 68 50 48 55 48 45 53 37 36 40 41 58 59 61 63 64 68 74 75 75 88 92 91 88 88 88 88 80 77 76 74 72 71 70 71 69 67 64 62 62 66 71
79 80 78 75 79 64 68 62 53 50 60 49 48 51 38 39 41 42 53 61 60 60 60 60 62 75 79 77 79 90 93 91 90 88 83 76 77 76 76 74 73 76 75 73 71 71 72 73 76
63 80 77 69 70 66 64 66 57 67 79 71 56 63 55 38 41 40 41 61 58 58 61 62 63 63 68 77 82 84 84 86 85 82 83 81 79 78 77 79 76 75 73 73 77 80 80 79 80
64 79 79 73 67 70 70 67 60 58 76 73 59 63 58 49 42 40 42 45 57 56 48 43 46 47 36 62 65 78 81 78 78 80 82 84 80 78 78 75 78 80 82 82 81 82 83 85 86
74 78 84 74 72 66 74 76 68 60 55 64 63 53 48 47 42 41 38 38 33 36 42 36 43 46 51 54 70 77 86 84 74 82 78 77 68 70 75 73 76 78 81 78 85 88 89 90 91
84 61 65 78 76 78 69 78 70 65 62 55 55 57 56 44 42 40 39 36 34 30 29 34 35 48 58 61 72 76 77 75 81 84 81 85 87 78 80 80 77 79 81 79 78 82 81 91 92
97 54 61 72 79 76 79 79 66 63 65 59 56 50 48 51 48 42 38 38 38 33 30 28 32 40 52 64 68 69 83 81 75 76 78 82 81 80 78 75 76 75 76 74 73 76 77 79 93
93 73 74 82 79 93 76 79 68 64 54 52 47 48 44 41 41 40 45 39 32 30 29 27 27 34 43 56 67 67 70 75 68 55 54 61 76 74 69 66 66 69 71 74 81 80 71 76 89
100 75 94 93 94 86 77 86 62 58 53 45 43 45 44 42 40 37 38 39 36 31 30 33 32 37 47 54 57 60 59 50 41 38 38 39 40 43 46 55 65 66 62 65 73 79 76 76 83
81 74 85 91 90 87 84 92 59 51 49 40 39 38 35 40 41 38 36 37 35 31 34 35 36 35 34 33 33 32 32 32 32 32 32 32 34 37 41 45 48 52 55 62 75 90 81 88 89
98 92 64 84 80 82 77 66 47 49 49 49 44 41 40 35 34 42 42 40 34 33 34 35 34 34 33 32 31 31 31 31 30 30 33 35 38 40 41 42 44 46 48 53 93 97 88 80 90
97 78 88 89 91 84 71 66 48 41 40 43 46 47 40 40 36 35 43 41 40 40 41 41 40 39 39 38 38 38 37 37 37 37 36 37 38 37 37 37 39 45 65 91 98 99 92 97 89
98 100 88 80 82 78 75 53 48 44 41 42 45 45 47 45 44 47 52 56 55 53 51 50 47 44 42 44 47 48 50 51 51 50 50 51 50 49 49 50 56 90 98 99 95 99 93 86 91
86 84 76 86 94 87 83 58 40 44 50 52 50 55 57 55 54 58 61 64 65 64 62 60 58 57 55 53 53 54 56 57 58 59 60 59 59 60 61 61 64 73 93 99 100 94 91 94 99